DAL388 ZSPD-KDTW

Flight info

Callsign DAL388
Flight time N/A
Altitude 35000
Route LAM91D LAMEN A593 SADLI Y590 BEDAR Y591 FUE Y23 KASTE Y81 TASOT Y57 POROT Y809 IDLAN Y812 ADNAP R591 ADGOR DCT AGEDI/N0486F370 DCT AKISU DCT ASPIN DCT CHIPT DCT 52N180W 54N170W 55N160W/N0490F390 56N150W DCT HMPTN DCT 56N140W 55N130W 53N120W 51N110W/N0486F410 50N107W DCT MOT DCT GRB DCT HOOTA RKCTY2
Aircraft A359/H-SDE2E3GHIJ3J4J5LM1ORWXY/LB1D1

Departure

Time 2026-05-07 22:31
Airport Shanghai Pudong International Airport (ZSPD)

Arrival

Time N/A
Airport Detroit Metropolitan Wayne County Airport (KDTW)
Time Latitude Longitude Altitude Speed Heading
2026-05-07 21:53 31.14604 121.79847 29 ft 0 kts 71°
2026-05-07 22:20 31.14599 121.79830 29 ft 4 kts 69°
2026-05-07 22:20 31.14590 121.79801 28 ft 4 kts 76°
2026-05-07 22:20 31.14587 121.79775 26 ft 4 kts 106°
2026-05-07 22:20 31.14595 121.79750 27 ft 4 kts 124°
2026-05-07 22:21 31.14610 121.79730 27 ft 4 kts 150°
2026-05-07 22:21 31.14634 121.79718 28 ft 4 kts 164°
2026-05-07 22:21 31.14651 121.79712 27 ft 1 kts 162°
2026-05-07 22:24 31.14643 121.79715 29 ft 5 kts 161°
2026-05-07 22:24 31.14579 121.79739 29 ft 13 kts 164°
2026-05-07 22:24 31.14493 121.79768 29 ft 13 kts 163°
2026-05-07 22:25 31.14423 121.79732 29 ft 12 kts 242°
2026-05-07 22:25 31.14394 121.79638 29 ft 14 kts 251°
2026-05-07 22:25 31.14342 121.79515 29 ft 17 kts 210°
2026-05-07 22:25 31.14228 121.79533 29 ft 17 kts 164°
2026-05-07 22:26 31.14114 121.79575 29 ft 17 kts 161°
2026-05-07 22:26 31.14000 121.79620 29 ft 17 kts 161°
2026-05-07 22:26 31.13884 121.79664 29 ft 18 kts 162°
2026-05-07 22:26 31.13766 121.79709 28 ft 18 kts 162°
2026-05-07 22:27 31.13646 121.79754 29 ft 18 kts 162°
2026-05-07 22:27 31.13525 121.79800 29 ft 19 kts 162°
2026-05-07 22:27 31.13402 121.79847 29 ft 19 kts 162°
2026-05-07 22:27 31.13277 121.79895 28 ft 19 kts 162°
2026-05-07 22:28 31.13148 121.79943 28 ft 20 kts 162°
2026-05-07 22:28 31.13019 121.79992 28 ft 19 kts 162°
2026-05-07 22:28 31.12890 121.80040 29 ft 20 kts 162°
2026-05-07 22:28 31.12809 121.80070 29 ft 7 kts 162°
2026-05-07 22:29 31.12766 121.80059 29 ft 6 kts 220°
2026-05-07 22:29 31.12745 121.80012 29 ft 10 kts 249°
2026-05-07 22:29 31.12723 121.79920 29 ft 12 kts 272°
2026-05-07 22:29 31.12778 121.79861 28 ft 11 kts 342°
2026-05-07 22:30 31.12897 121.79816 28 ft 31 kts 342°
2026-05-07 22:30 31.13280 121.79672 28 ft 89 kts 342°
2026-05-07 22:30 31.14059 121.79381 26 ft 145 kts 342°
2026-05-07 22:30 31.15137 121.78961 343 ft 163 kts 343°
2026-05-07 22:31 31.16146 121.78582 1300 ft 147 kts 346°
2026-05-07 22:31 31.17174 121.78239 1755 ft 163 kts 347°
2026-05-07 22:31 31.18307 121.77834 2125 ft 177 kts 345°
2026-05-07 22:31 31.19513 121.77323 2416 ft 193 kts 343°
2026-05-07 22:32 31.20820 121.76756 2694 ft 208 kts 344°
2026-05-07 22:32 31.22244 121.76150 2944 ft 228 kts 344°
2026-05-07 22:32 31.23784 121.75513 3353 ft 239 kts 344°
2026-05-07 22:32 31.25373 121.74864 3920 ft 245 kts 344°
2026-05-07 22:33 31.26994 121.74202 4485 ft 248 kts 343°
2026-05-07 22:33 31.28634 121.73556 5084 ft 250 kts 346°
2026-05-07 22:33 31.30362 121.73285 5645 ft 252 kts
2026-05-07 22:33 31.32078 121.73733 6192 ft 258 kts 23°
2026-05-07 22:34 31.33472 121.75101 6693 ft 271 kts 53°
2026-05-07 22:34 31.34289 121.77085 7196 ft 279 kts 65°
2026-05-07 22:34 31.34984 121.79218 7732 ft 284 kts 65°
2026-05-07 22:34 31.35716 121.81388 8291 ft 288 kts 65°
2026-05-07 22:35 31.36484 121.83575 8863 ft 293 kts 64°
2026-05-07 22:35 31.37391 121.85715 9443 ft 295 kts 57°
2026-05-07 22:35 31.38430 121.87805 9998 ft 299 kts 56°
2026-05-07 22:35 31.39507 121.89917 10435 ft 308 kts 55°
2026-05-07 22:36 31.40636 121.92121 10676 ft 323 kts 55°
2026-05-07 22:36 31.41817 121.94431 10933 ft 337 kts 55°
2026-05-07 22:36 31.43042 121.96837 11198 ft 351 kts 55°
2026-05-07 22:36 31.44313 121.99337 11463 ft 364 kts 56°
2026-05-07 22:37 31.45628 122.01930 11699 ft 377 kts 56°
2026-05-07 22:37 31.46948 122.04636 11951 ft 389 kts 57°
2026-05-07 22:37 31.48293 122.07441 12188 ft 400 kts 57°
2026-05-07 22:37 31.49568 122.10098 12475 ft 408 kts 57°
2026-05-07 22:38 31.50968 122.13009 12897 ft 412 kts 57°
2026-05-07 22:38 31.52381 122.15946 13324 ft 416 kts 57°
2026-05-07 22:38 31.53815 122.18922 13757 ft 420 kts 57°
2026-05-07 22:38 31.55258 122.21917 14136 ft 424 kts 57°
2026-05-07 22:39 31.56718 122.24947 14473 ft 429 kts 57°
2026-05-07 22:39 31.58192 122.28009 14793 ft 434 kts 57°
2026-05-07 22:39 31.59680 122.31103 15134 ft 438 kts 57°
2026-05-07 22:39 31.61166 122.34197 15471 ft 442 kts 57°
2026-05-07 22:40 31.62473 122.37483 15786 ft 450 kts 70°
2026-05-07 22:40 31.63158 122.41084 15917 ft 453 kts 79°
2026-05-07 22:40 31.63624 122.44757 16167 ft 457 kts 80°
2026-05-07 22:40 31.64084 122.48455 16557 ft 459 kts 80°
2026-05-07 22:41 31.64558 122.52173 16897 ft 463 kts 80°
2026-05-07 22:41 31.65042 122.55921 17244 ft 466 kts 80°
2026-05-07 22:41 31.65535 122.59704 17574 ft 469 kts 80°
2026-05-07 22:41 31.66030 122.63497 17904 ft 473 kts 81°
2026-05-07 22:42 31.66535 122.67328 18240 ft 476 kts 81°
2026-05-07 22:42 31.67041 122.71184 18533 ft 480 kts 81°
2026-05-07 22:42 31.67550 122.75071 18797 ft 483 kts 81°
2026-05-07 22:42 31.68060 122.78974 19079 ft 486 kts 81°
2026-05-07 22:43 31.68587 122.82911 19355 ft 489 kts 81°
2026-05-07 22:43 31.69123 122.86868 19639 ft 492 kts 80°
2026-05-07 22:43 31.69659 122.90850 19911 ft 495 kts 80°
2026-05-07 22:43 31.70197 122.94858 20207 ft 498 kts 81°
2026-05-07 22:44 31.70734 122.98877 20496 ft 501 kts 81°
2026-05-07 22:44 31.71275 123.02936 20780 ft 504 kts 81°
2026-05-07 22:44 31.71818 123.07017 21069 ft 507 kts 81°
2026-05-07 22:44 31.72362 123.11118 21367 ft 510 kts 81°
2026-05-07 22:45 31.72908 123.15249 21630 ft 513 kts 81°
2026-05-07 22:45 31.73455 123.19398 21915 ft 516 kts 80°
2026-05-07 22:45 31.73998 123.23529 22188 ft 519 kts 80°
2026-05-07 22:45 31.74549 123.27728 22457 ft 522 kts 80°
2026-05-07 22:46 31.75110 123.32017 22725 ft 525 kts 80°
2026-05-07 22:46 31.75657 123.36212 22979 ft 528 kts 80°
2026-05-07 22:46 31.76215 123.40501 23252 ft 531 kts 80°
2026-05-07 22:46 31.76684 123.44819 23522 ft 534 kts 85°
2026-05-07 22:47 31.76643 123.49188 23768 ft 536 kts 97°
2026-05-07 22:47 31.75923 123.53473 24011 ft 535 kts 109°
2026-05-07 22:47 31.74705 123.57590 24270 ft 534 kts 114°
2026-05-07 22:47 31.73380 123.61675 24532 ft 536 kts 114°
2026-05-07 22:48 31.72048 123.65774 24810 ft 538 kts 114°
2026-05-07 22:48 31.70716 123.69891 25101 ft 540 kts 114°
2026-05-07 22:48 31.69381 123.74028 25398 ft 542 kts 114°
2026-05-07 22:48 31.68045 123.78173 25694 ft 544 kts 114°
2026-05-07 22:49 31.66703 123.82337 25998 ft 546 kts 114°
2026-05-07 22:49 31.65354 123.86517 26290 ft 548 kts 114°
2026-05-07 22:49 31.64001 123.90710 26582 ft 551 kts 114°
2026-05-07 22:49 31.62769 123.94985 26857 ft 556 kts 107°
2026-05-07 22:50 31.62094 123.99462 27130 ft 561 kts 95°
2026-05-07 22:50 31.62136 124.04049 27409 ft 564 kts 83°
2026-05-07 22:50 31.62834 124.08579 27663 ft 565 kts 76°
2026-05-07 22:50 31.63761 124.13058 27915 ft 567 kts 73°
2026-05-07 22:51 31.64779 124.17541 28176 ft 569 kts 73°
2026-05-07 22:51 31.65747 124.22052 28405 ft 573 kts 78°
2026-05-07 22:51 31.66298 124.26690 28653 ft 576 kts 83°
2026-05-07 22:51 31.66653 124.31382 28882 ft 578 kts 85°
2026-05-07 22:52 31.66900 124.36037 29114 ft 580 kts 87°
2026-05-07 22:52 31.67097 124.40770 29434 ft 580 kts 87°
2026-05-07 22:52 31.67274 124.45501 29764 ft 580 kts 87°
2026-05-07 22:52 31.67453 124.50232 30079 ft 580 kts 87°
2026-05-07 22:53 31.67640 124.54967 30369 ft 580 kts 87°
2026-05-07 22:53 31.67836 124.59696 30639 ft 580 kts 87°
2026-05-07 22:53 31.68038 124.64427 30899 ft 580 kts 87°
2026-05-07 22:53 31.68243 124.69155 31164 ft 580 kts 87°
2026-05-07 22:54 31.68447 124.73880 31422 ft 580 kts 87°
2026-05-07 22:54 31.68651 124.78612 31678 ft 580 kts 87°
2026-05-07 22:54 31.68851 124.83343 31927 ft 580 kts 87°
2026-05-07 22:54 31.69050 124.88066 32168 ft 580 kts 88°
2026-05-07 22:55 31.69245 124.92786 32409 ft 580 kts 88°
2026-05-07 22:55 31.69439 124.97521 32669 ft 580 kts 88°
2026-05-07 22:55 31.69631 125.02248 32879 ft 580 kts 88°
2026-05-07 22:55 31.69821 125.06970 33102 ft 580 kts 88°
2026-05-07 22:56 31.70010 125.11706 33309 ft 581 kts 88°
2026-05-07 22:56 31.70197 125.16441 33505 ft 581 kts 88°
2026-05-07 22:56 31.70383 125.21192 33731 ft 581 kts 88°
2026-05-07 22:56 31.70566 125.25923 33969 ft 580 kts 88°
2026-05-07 22:57 31.70748 125.30654 34189 ft 580 kts 89°
2026-05-07 22:57 31.70928 125.35382 34378 ft 579 kts 88°
2026-05-07 22:57 31.71104 125.40047 34561 ft 579 kts 88°
2026-05-07 22:57 31.71280 125.44765 34750 ft 579 kts 88°
2026-05-07 22:58 31.71457 125.49548 34918 ft 579 kts 88°
2026-05-07 22:58 31.71627 125.54207 35059 ft 579 kts 88°
2026-05-07 22:58 31.71799 125.58954 35091 ft 582 kts 88°
2026-05-07 22:59 31.72626 125.68446 35095 ft 585 kts 76°
2026-05-07 22:59 31.74520 125.77731 35091 ft 585 kts 74°
2026-05-07 23:00 31.76593 125.86981 35087 ft 585 kts 74°
2026-05-07 23:00 31.78675 125.96236 35087 ft 585 kts 74°
2026-05-07 23:01 31.80718 126.05501 35087 ft 586 kts 74°
2026-05-07 23:01 31.82735 126.14773 35082 ft 586 kts 75°
2026-05-07 23:02 31.84749 126.24069 35071 ft 587 kts 75°
2026-05-07 23:02 31.86756 126.33353 35080 ft 587 kts 75°
2026-05-07 23:03 31.88765 126.42682 35069 ft 587 kts 75°
2026-05-07 23:03 31.90771 126.51999 35074 ft 587 kts 75°
2026-05-07 23:04 31.92825 126.61304 35064 ft 587 kts 74°
2026-05-07 23:04 31.94888 126.70611 35072 ft 587 kts 74°
2026-05-07 23:05 31.96937 126.79919 35061 ft 587 kts 74°
2026-05-07 23:05 31.98972 126.89231 35063 ft 587 kts 75°
2026-05-07 23:06 32.01000 126.98554 35065 ft 587 kts 75°
2026-05-07 23:06 32.03007 127.07810 35062 ft 587 kts 75°
2026-05-07 23:07 32.05729 127.16829 35060 ft 584 kts 64°
2026-05-07 23:07 32.08977 127.25610 35063 ft 583 kts 63°
2026-05-07 23:08 32.12297 127.34340 35057 ft 583 kts 63°
2026-05-07 23:08 32.15605 127.43079 35062 ft 583 kts 63°
2026-05-07 23:09 32.18887 127.51828 35060 ft 583 kts 63°
2026-05-07 23:09 32.22156 127.60587 35059 ft 583 kts 63°
2026-05-07 23:10 32.24873 127.67883 35057 ft 583 kts 63°
2026-05-07 23:10 32.28132 127.76653 35055 ft 583 kts 64°
2026-05-07 23:11 32.31392 127.85445 35052 ft 584 kts 64°
2026-05-07 23:11 32.34645 127.94245 35054 ft 584 kts 64°
2026-05-07 23:12 32.37895 128.03058 35048 ft 584 kts 64°
2026-05-07 23:12 32.41138 128.11877 35052 ft 584 kts 64°
2026-05-07 23:13 32.44375 128.20701 35048 ft 584 kts 64°
2026-05-07 23:13 32.47606 128.29531 35047 ft 584 kts 64°
2026-05-07 23:14 32.50832 128.38370 35044 ft 584 kts 64°
2026-05-07 23:14 32.54055 128.47224 35032 ft 585 kts 64°
2026-05-07 23:15 32.57249 128.56019 35018 ft 585 kts 64°
2026-05-07 23:15 32.60483 128.64952 35006 ft 585 kts 64°
2026-05-07 23:16 32.63667 128.73769 34994 ft 585 kts 64°
2026-05-07 23:16 32.66734 128.82722 34995 ft 587 kts 72°
2026-05-07 23:17 32.68860 128.92082 34993 ft 588 kts 75°
2026-05-07 23:17 32.70792 129.01513 34995 ft 588 kts 76°
2026-05-07 23:18 32.72689 129.10967 35006 ft 588 kts 76°
2026-05-07 23:18 32.74597 129.20419 35021 ft 588 kts 75°
2026-05-07 23:19 32.76512 129.29874 35019 ft 588 kts 75°
2026-05-07 23:19 32.78423 129.39334 35016 ft 588 kts 75°
2026-05-07 23:20 32.80315 129.48741 34996 ft 588 kts 75°
2026-05-07 23:20 32.82210 129.58209 34984 ft 588 kts 75°
2026-05-07 23:21 32.84096 129.67672 34988 ft 587 kts 75°
2026-05-07 23:21 32.85771 129.77180 34966 ft 587 kts 79°
2026-05-07 23:22 32.87059 129.86726 34968 ft 588 kts 81°
2026-05-07 23:22 32.88344 129.96325 34968 ft 588 kts 80°
2026-05-07 23:23 32.89692 130.05906 34964 ft 587 kts 79°
2026-05-07 23:23 32.91069 130.15498 34969 ft 587 kts 79°
2026-05-07 23:24 32.92438 130.25069 34968 ft 587 kts 79°
2026-05-07 23:24 32.93798 130.34673 34970 ft 587 kts 80°
2026-05-07 23:25 32.95138 130.44204 34965 ft 587 kts 80°
2026-05-07 23:25 32.96477 130.53786 34967 ft 587 kts 80°
2026-05-07 23:26 32.97803 130.63329 34971 ft 586 kts 80°
2026-05-07 23:26 32.99135 130.72960 34966 ft 585 kts 80°
2026-05-07 23:27 33.01091 130.87223 34965 ft 583 kts 80°
2026-05-07 23:27 33.02390 130.96756 34968 ft 582 kts 80°
2026-05-07 23:28 33.03678 131.06268 34963 ft 580 kts 80°
2026-05-07 23:28 33.04954 131.15754 34960 ft 578 kts 81°
2026-05-07 23:29 33.06219 131.25218 34952 ft 577 kts 81°
2026-05-07 23:29 33.07467 131.34611 34946 ft 576 kts 81°
2026-05-07 23:30 33.08715 131.44056 34944 ft 576 kts 81°
2026-05-07 23:30 33.09956 131.53501 34939 ft 577 kts 81°
2026-05-07 23:31 33.11194 131.62977 34925 ft 578 kts 81°
2026-05-07 23:31 33.12424 131.72467 34924 ft 580 kts 81°
2026-05-07 23:32 33.13651 131.81989 34922 ft 580 kts 81°
2026-05-07 23:32 33.14871 131.91505 34917 ft 581 kts 81°
2026-05-07 23:33 33.16078 132.00981 34915 ft 580 kts 81°
2026-05-07 23:33 33.17282 132.10501 34923 ft 580 kts 81°
2026-05-07 23:34 33.18479 132.20015 34924 ft 579 kts 81°
2026-05-07 23:34 33.19668 132.29521 34927 ft 578 kts 81°
2026-05-07 23:35 33.20839 132.38949 34918 ft 577 kts 81°
2026-05-07 23:35 33.22007 132.48409 34920 ft 575 kts 81°
2026-05-07 23:36 33.23166 132.57861 34921 ft 574 kts 82°
2026-05-07 23:36 33.24322 132.67302 34917 ft 572 kts 82°
2026-05-07 23:37 33.25460 132.76707 34914 ft 571 kts 82°
2026-05-07 23:37 33.26589 132.86107 34915 ft 571 kts 82°
2026-05-07 23:38 33.27711 132.95488 34908 ft 569 kts 82°
2026-05-07 23:38 33.28820 133.04844 34902 ft 568 kts 82°
2026-05-07 23:39 33.29919 133.14129 34900 ft 566 kts 82°
2026-05-07 23:39 33.31012 133.23466 34898 ft 567 kts 82°
2026-05-07 23:40 33.32094 133.32804 34891 ft 566 kts 82°
2026-05-07 23:40 33.33168 133.42121 34881 ft 565 kts 82°
2026-05-07 23:41 33.34235 133.51428 34876 ft 564 kts 83°
2026-05-07 23:41 33.35289 133.60669 34870 ft 564 kts 83°
2026-05-07 23:42 33.36341 133.69966 34866 ft 563 kts 83°
2026-05-07 23:42 33.37386 133.79259 34870 ft 563 kts 83°
2026-05-07 23:43 33.38421 133.88533 34875 ft 562 kts 83°
2026-05-07 23:43 33.39449 133.97805 34879 ft 562 kts 84°
2026-05-07 23:44 33.40469 134.07075 34885 ft 561 kts 84°
2026-05-07 23:44 33.41485 134.16339 34890 ft 561 kts 84°
2026-05-07 23:45 33.42489 134.25589 34878 ft 559 kts 84°
2026-05-07 23:45 33.43482 134.34818 34878 ft 559 kts 84°
2026-05-07 23:46 33.44470 134.44058 34873 ft 559 kts 84°
2026-05-07 23:46 33.45446 134.53247 34871 ft 560 kts 84°
2026-05-07 23:47 33.46422 134.62489 34870 ft 560 kts 84°
2026-05-07 23:47 33.47391 134.71740 34870 ft 560 kts 85°
2026-05-07 23:48 33.48352 134.80996 34868 ft 560 kts 85°
2026-05-07 23:48 33.49308 134.90263 34873 ft 560 kts 85°
2026-05-07 23:49 33.50258 134.99527 34868 ft 560 kts 85°
2026-05-07 23:49 33.51206 135.08795 34871 ft 560 kts 85°
2026-05-07 23:50 33.52134 135.17997 34879 ft 560 kts 85°
2026-05-07 23:50 33.53064 135.27270 34882 ft 559 kts 85°
2026-05-07 23:51 33.53986 135.36522 34882 ft 559 kts 85°
2026-05-07 23:51 33.54901 135.45769 34880 ft 558 kts 85°
2026-05-07 23:52 33.55809 135.55025 34880 ft 558 kts 85°
2026-05-07 23:52 33.56709 135.64260 34880 ft 557 kts 85°
2026-05-07 23:53 33.57600 135.73482 34880 ft 557 kts 85°
2026-05-07 23:53 33.58484 135.82705 34876 ft 557 kts 86°
2026-05-07 23:54 33.59360 135.91934 34875 ft 557 kts 85°
2026-05-07 23:54 33.60230 136.01156 34870 ft 556 kts 85°
2026-05-07 23:55 33.61092 136.10381 34866 ft 556 kts 85°
2026-05-07 23:55 33.61942 136.19543 34864 ft 555 kts 85°
2026-05-07 23:56 33.62790 136.28759 34865 ft 555 kts 85°
2026-05-07 23:56 33.63630 136.37966 34863 ft 555 kts 85°
2026-05-07 23:57 33.64323 136.45621 34866 ft 554 kts 85°
2026-05-07 23:57 33.65150 136.54821 34871 ft 554 kts 85°
2026-05-07 23:58 33.65970 136.64021 34869 ft 554 kts 85°
2026-05-07 23:58 33.66783 136.73222 34868 ft 554 kts 85°
2026-05-07 23:59 33.67590 136.82428 34870 ft 554 kts 85°
2026-05-07 23:59 33.68389 136.91639 34869 ft 554 kts 85°
2026-05-08 00:00 33.69177 137.00790 34871 ft 555 kts 85°
2026-05-08 00:00 33.69965 137.10026 34870 ft 555 kts 85°
2026-05-08 00:01 33.70547 137.19262 34875 ft 554 kts 89°
2026-05-08 00:01 33.70729 137.28518 34874 ft 555 kts 90°
2026-05-08 00:02 33.70904 137.37784 34877 ft 555 kts 90°
2026-05-08 00:02 33.71143 137.47055 34881 ft 555 kts 90°
2026-05-08 00:03 33.71406 137.56322 34880 ft 555 kts 90°
2026-05-08 00:03 33.71666 137.65606 34883 ft 555 kts 90°
2026-05-08 00:04 33.71915 137.74814 34891 ft 555 kts 90°
2026-05-08 00:04 33.72156 137.84069 34886 ft 555 kts 90°
2026-05-08 00:05 33.72390 137.93348 34881 ft 554 kts 90°
2026-05-08 00:05 33.72616 138.02603 34894 ft 554 kts 90°
2026-05-08 00:06 33.72835 138.11851 34892 ft 554 kts 90°
2026-05-08 00:06 33.73048 138.21109 34886 ft 554 kts 91°
2026-05-08 00:07 33.73252 138.30299 34889 ft 554 kts 91°
2026-05-08 00:07 33.73451 138.39548 34893 ft 554 kts 91°
2026-05-08 00:08 33.74135 138.48759 34892 ft 556 kts 77°
2026-05-08 00:08 33.75322 138.53167 34891 ft 556 kts 66°
2026-05-08 00:08 33.77080 138.57295 34888 ft 555 kts 59°
2026-05-08 00:09 33.81011 138.65237 34883 ft 555 kts 57°
2026-05-08 00:09 33.85081 138.73127 34890 ft 554 kts 57°
2026-05-08 00:10 33.89124 138.81045 34885 ft 554 kts 57°
2026-05-08 00:10 33.93124 138.88977 34885 ft 553 kts 58°
2026-05-08 00:11 33.97101 138.96907 34890 ft 553 kts 58°
2026-05-08 00:11 34.01049 139.04799 34887 ft 553 kts 58°
2026-05-08 00:12 34.05016 139.12742 34884 ft 553 kts 58°
2026-05-08 00:12 34.08979 139.20693 34886 ft 552 kts 58°
2026-05-08 00:13 34.12934 139.28645 34885 ft 552 kts 58°
2026-05-08 00:13 34.16886 139.36617 34887 ft 552 kts 58°
2026-05-08 00:14 34.20834 139.44580 34880 ft 552 kts 58°
2026-05-08 00:14 34.24779 139.52559 34879 ft 552 kts 58°
2026-05-08 00:15 34.28683 139.60475 34886 ft 552 kts 59°
2026-05-08 00:15 34.32611 139.68461 34887 ft 552 kts 59°
2026-05-08 00:16 34.36529 139.76442 34886 ft 552 kts 59°
2026-05-08 00:16 34.40359 139.84490 34889 ft 552 kts 62°
2026-05-08 00:17 34.43816 139.92783 34868 ft 551 kts 64°
2026-05-08 00:17 34.47151 140.01146 34868 ft 551 kts 64°
2026-05-08 00:18 34.50487 140.09520 34874 ft 551 kts 64°
2026-05-08 00:18 34.53833 140.17882 34866 ft 551 kts 64°
2026-05-08 00:19 34.57182 140.26246 34861 ft 551 kts 64°
2026-05-08 00:19 34.60522 140.34605 34875 ft 551 kts 64°
2026-05-08 00:20 34.63863 140.42993 34864 ft 551 kts 64°
2026-05-08 00:20 34.67187 140.51358 34860 ft 550 kts 64°
2026-05-08 00:21 34.70509 140.59739 34875 ft 550 kts 64°
2026-05-08 00:21 34.73796 140.68056 34875 ft 549 kts 64°
2026-05-08 00:22 34.77117 140.76478 34865 ft 549 kts 64°
2026-05-08 00:22 34.80387 140.84791 34875 ft 548 kts 64°
2026-05-08 00:23 34.83686 140.93202 34868 ft 547 kts 64°
2026-05-08 00:23 34.86937 141.01510 34877 ft 546 kts 64°
2026-05-08 00:24 34.90195 141.09857 34861 ft 545 kts 64°
2026-05-08 00:24 34.93442 141.18197 34863 ft 545 kts 64°
2026-05-08 00:25 34.96684 141.26545 34879 ft 544 kts 64°
2026-05-08 00:25 34.99915 141.34886 34861 ft 544 kts 64°
2026-05-08 00:26 35.03140 141.43232 34859 ft 543 kts 64°
2026-05-08 00:26 35.06352 141.51569 34877 ft 542 kts 64°
2026-05-08 00:27 35.09558 141.59909 34864 ft 542 kts 64°
2026-05-08 00:27 35.12751 141.68237 34865 ft 541 kts 64°
2026-05-08 00:28 35.15940 141.76576 34864 ft 541 kts 64°
2026-05-08 00:28 35.19095 141.84847 34867 ft 540 kts 64°
2026-05-08 00:29 35.22282 141.93223 34867 ft 540 kts 65°
2026-05-08 00:29 35.25427 142.01511 34870 ft 540 kts 65°
2026-05-08 00:30 35.28579 142.09839 34871 ft 540 kts 65°
2026-05-08 00:30 35.31733 142.18193 34870 ft 540 kts 65°
2026-05-08 00:31 35.34878 142.26545 34869 ft 540 kts 65°
2026-05-08 00:31 35.38018 142.34904 34870 ft 540 kts 65°
2026-05-08 00:32 35.41150 142.43267 34867 ft 540 kts 65°
2026-05-08 00:32 35.44279 142.51642 34868 ft 540 kts 65°
2026-05-08 00:33 35.47399 142.60016 34874 ft 540 kts 66°
2026-05-08 00:33 35.50514 142.68399 34873 ft 540 kts 66°
2026-05-08 00:34 35.53624 142.76789 34873 ft 540 kts 66°
2026-05-08 00:34 35.56729 142.85188 34874 ft 540 kts 66°
2026-05-08 00:35 35.59809 142.93541 34875 ft 540 kts 66°
2026-05-08 00:35 35.62900 143.01946 34873 ft 540 kts 66°
2026-05-08 00:36 35.65986 143.10363 34873 ft 540 kts 67°
2026-05-08 00:36 35.69068 143.18788 34873 ft 540 kts 67°
2026-05-08 00:37 35.72143 143.27218 34875 ft 540 kts 67°
2026-05-08 00:38 35.76741 143.39867 34874 ft 540 kts 67°
2026-05-08 00:38 35.79802 143.48314 34877 ft 540 kts 67°
2026-05-08 00:39 35.82837 143.56715 34878 ft 540 kts 67°
2026-05-08 00:39 35.85885 143.65173 34879 ft 540 kts 67°
2026-05-08 00:40 35.88929 143.73644 34879 ft 540 kts 67°
2026-05-08 00:40 35.91965 143.82113 34881 ft 540 kts 67°
2026-05-08 00:41 35.94999 143.90601 34882 ft 540 kts 67°
2026-05-08 00:41 35.98024 143.99088 34881 ft 540 kts 67°
2026-05-08 00:42 36.01189 144.07503 34875 ft 541 kts 60°
2026-05-08 00:42 36.05741 144.14874 34881 ft 540 kts 47°
2026-05-08 00:43 36.10887 144.21659 34880 ft 540 kts 45°
2026-05-08 00:43 36.16117 144.28347 34882 ft 541 kts 45°
2026-05-08 00:44 36.21322 144.35082 34878 ft 542 kts 45°
2026-05-08 00:44 36.26502 144.41861 34880 ft 542 kts 46°
2026-05-08 00:45 36.30799 144.47510 34875 ft 542 kts 46°
2026-05-08 00:45 36.35961 144.54309 34876 ft 542 kts 46°
2026-05-08 00:46 36.41125 144.61121 34877 ft 542 kts 46°
2026-05-08 00:46 36.46286 144.67942 34874 ft 541 kts 46°
2026-05-08 00:47 36.51441 144.74770 34876 ft 541 kts 46°
2026-05-08 00:47 36.56585 144.81597 34871 ft 541 kts 46°
2026-05-08 00:48 36.61729 144.88438 34876 ft 541 kts 46°
2026-05-08 00:48 36.66871 144.95291 34875 ft 541 kts 46°
2026-05-08 00:49 36.72003 145.02146 34875 ft 541 kts 46°
2026-05-08 00:49 36.77128 145.09005 34870 ft 541 kts 46°
2026-05-08 00:50 36.82260 145.15888 34870 ft 541 kts 46°
2026-05-08 00:50 36.87382 145.22771 34873 ft 541 kts 46°
2026-05-08 00:51 36.92469 145.29622 34869 ft 540 kts 46°
2026-05-08 00:51 36.97576 145.36514 34867 ft 540 kts 46°
2026-05-08 00:52 37.02675 145.43411 34864 ft 540 kts 47°
2026-05-08 00:52 37.07766 145.50312 34866 ft 539 kts 47°
2026-05-08 00:53 37.12856 145.57226 34866 ft 540 kts 47°
2026-05-08 00:53 37.17938 145.64144 34866 ft 540 kts 47°
2026-05-08 00:54 37.23117 145.70958 34865 ft 539 kts 43°
2026-05-08 00:54 37.28683 145.77282 34864 ft 539 kts 40°
2026-05-08 00:55 37.34253 145.83515 34867 ft 540 kts 41°
2026-05-08 00:55 37.39794 145.89876 34862 ft 540 kts 42°
2026-05-08 00:56 37.45316 145.96314 34860 ft 540 kts 42°
2026-05-08 00:56 37.50821 146.02762 34860 ft 541 kts 42°
2026-05-08 00:57 37.56328 146.09220 34863 ft 541 kts 42°
2026-05-08 00:57 37.61828 146.15678 34860 ft 540 kts 43°
2026-05-08 00:58 37.67332 146.22155 34860 ft 540 kts 43°
2026-05-08 00:58 37.72798 146.28600 34861 ft 540 kts 43°
2026-05-08 00:59 37.78292 146.35092 34862 ft 541 kts 43°
2026-05-08 00:59 37.83800 146.41615 34867 ft 541 kts 43°
2026-05-08 01:00 37.89299 146.48141 34863 ft 542 kts 43°
2026-05-08 01:00 37.94768 146.54644 34864 ft 542 kts 43°
2026-05-08 01:01 38.00272 146.61204 34867 ft 543 kts 43°
2026-05-08 01:01 38.05760 146.67758 34859 ft 542 kts 43°
2026-05-08 01:02 38.11259 146.74341 34865 ft 542 kts 43°
2026-05-08 01:02 38.16744 146.80921 34862 ft 542 kts 43°
2026-05-08 01:03 38.22219 146.87504 34866 ft 542 kts 43°
2026-05-08 01:03 38.27701 146.94110 34868 ft 542 kts 43°
2026-05-08 01:04 38.33177 147.00722 34858 ft 543 kts 43°
2026-05-08 01:04 38.38629 147.07320 34864 ft 544 kts 43°
2026-05-08 01:05 38.44122 147.13983 34866 ft 546 kts 43°
2026-05-08 01:05 38.49627 147.20673 34854 ft 547 kts 43°
2026-05-08 01:06 38.55136 147.27385 34857 ft 547 kts 43°
2026-05-08 01:06 38.60644 147.34111 34865 ft 547 kts 43°
2026-05-08 01:07 38.66142 147.40838 34863 ft 547 kts 43°
2026-05-08 01:07 38.71641 147.47581 34854 ft 547 kts 43°
2026-05-08 01:08 38.77106 147.54298 34851 ft 547 kts 43°
2026-05-08 01:08 38.82596 147.61062 34854 ft 547 kts 43°
2026-05-08 01:09 38.88090 147.67845 34854 ft 548 kts 43°
2026-05-08 01:09 38.93580 147.74638 34853 ft 548 kts 43°
2026-05-08 01:10 38.99077 147.81456 34846 ft 549 kts 43°
2026-05-08 01:10 39.04536 147.88243 34845 ft 550 kts 43°
2026-05-08 01:11 39.10035 147.95095 34840 ft 550 kts 43°
2026-05-08 01:11 39.15537 148.01967 34838 ft 551 kts 43°
2026-05-08 01:12 39.21035 148.08848 34836 ft 551 kts 43°
2026-05-08 01:12 39.26537 148.15751 34836 ft 552 kts 43°
2026-05-08 01:13 39.32039 148.22670 34836 ft 552 kts 43°
2026-05-08 01:13 39.37503 148.29557 34832 ft 551 kts 43°
2026-05-08 01:14 39.42994 148.36493 34832 ft 551 kts 43°
2026-05-08 01:14 39.48483 148.43444 34834 ft 552 kts 43°
2026-05-08 01:15 39.53965 148.50401 34829 ft 552 kts 43°
2026-05-08 01:15 39.59436 148.57361 34827 ft 552 kts 43°
2026-05-08 01:16 39.64920 148.64354 34823 ft 552 kts 43°
2026-05-08 01:16 39.70399 148.71358 34821 ft 553 kts 43°
2026-05-08 01:17 39.75846 148.78335 34816 ft 553 kts 43°
2026-05-08 01:17 39.81326 148.85373 34812 ft 554 kts 43°
2026-05-08 01:18 39.86811 148.92433 34813 ft 555 kts 43°
2026-05-08 01:18 39.92295 148.99510 34803 ft 556 kts 43°
2026-05-08 01:19 39.97789 149.06614 34803 ft 556 kts 43°
2026-05-08 01:19 40.03284 149.13739 34802 ft 557 kts 43°
2026-05-08 01:20 40.08743 149.20835 34797 ft 557 kts 43°
2026-05-08 01:20 40.14232 149.27985 34795 ft 557 kts 43°
2026-05-08 01:21 40.19719 149.35150 34795 ft 558 kts 43°
2026-05-08 01:21 40.25208 149.42336 34791 ft 558 kts 43°
2026-05-08 01:22 40.30689 149.49528 34790 ft 558 kts 44°
2026-05-08 01:22 40.36174 149.56744 34788 ft 558 kts 44°
2026-05-08 01:23 40.41653 149.63969 34790 ft 559 kts 44°
2026-05-08 01:23 40.47127 149.71223 34787 ft 559 kts 44°
2026-05-08 01:24 40.52588 149.78503 34789 ft 559 kts 44°
2026-05-08 01:24 40.58056 149.85810 34789 ft 560 kts 44°
2026-05-08 01:25 40.63517 149.93122 34800 ft 561 kts 44°
2026-05-08 01:25 40.68986 150.00461 34774 ft 561 kts 44°
2026-05-08 01:26 40.74416 150.07764 34789 ft 562 kts 44°
2026-05-08 01:26 40.79887 150.15142 34791 ft 562 kts 44°
2026-05-08 01:27 40.85353 150.22533 34792 ft 563 kts 44°
2026-05-08 01:27 40.90822 150.29946 34791 ft 563 kts 44°
2026-05-08 01:28 40.96288 150.37373 34790 ft 564 kts 44°
2026-05-08 01:28 41.01756 150.44822 34794 ft 564 kts 44°
2026-05-08 01:29 41.07229 150.52297 34798 ft 565 kts 44°
2026-05-08 01:29 41.12697 150.59784 34796 ft 565 kts 44°
2026-05-08 01:30 41.18161 150.67284 34796 ft 565 kts 44°
2026-05-08 01:30 41.23621 150.74798 34800 ft 565 kts 44°
2026-05-08 01:31 41.29036 150.82269 34802 ft 565 kts 44°
2026-05-08 01:31 41.34490 150.89813 34801 ft 566 kts 44°
2026-05-08 01:32 41.39940 150.97373 34803 ft 566 kts 44°
2026-05-08 01:32 41.45394 151.04956 34805 ft 566 kts 44°
2026-05-08 01:33 41.50841 151.12549 34814 ft 566 kts 44°
2026-05-08 01:33 41.56281 151.20153 34807 ft 566 kts 44°
2026-05-08 01:34 41.61717 151.27770 34807 ft 567 kts 44°
2026-05-08 01:34 41.67155 151.35411 34812 ft 567 kts 44°
2026-05-08 01:35 41.71678 151.41780 34810 ft 568 kts 44°
2026-05-08 01:35 41.78035 151.50758 34811 ft 568 kts 44°
2026-05-08 01:36 41.82553 151.57154 34814 ft 568 kts 44°
2026-05-08 01:36 41.87987 151.64868 34813 ft 568 kts 44°
2026-05-08 01:37 41.93407 151.72580 34817 ft 568 kts 44°
2026-05-08 01:37 41.98795 151.80269 34819 ft 568 kts 44°
2026-05-08 01:38 42.04214 151.88021 34819 ft 569 kts 44°
2026-05-08 01:38 42.09626 151.95783 34823 ft 569 kts 44°
2026-05-08 01:39 42.15037 152.03566 34825 ft 569 kts 44°
2026-05-08 01:39 42.20442 152.11362 34822 ft 568 kts 44°
2026-05-08 01:40 42.25836 152.19161 34829 ft 568 kts 44°
2026-05-08 01:40 42.31229 152.26982 34825 ft 569 kts 44°
2026-05-08 01:41 42.36623 152.34823 34828 ft 569 kts 44°
2026-05-08 01:41 42.42007 152.42672 34833 ft 569 kts 44°
2026-05-08 01:42 42.47349 152.50481 34835 ft 569 kts 44°
2026-05-08 01:42 42.52732 152.58371 34838 ft 569 kts 44°
2026-05-08 01:43 42.58096 152.66254 34840 ft 568 kts 44°
2026-05-08 01:43 42.63454 152.74150 34846 ft 568 kts 44°
2026-05-08 01:44 42.68804 152.82057 34853 ft 568 kts 44°
2026-05-08 01:44 42.74147 152.89973 34844 ft 568 kts 44°
2026-05-08 01:45 42.79483 152.97900 34851 ft 567 kts 44°
2026-05-08 01:45 42.84815 153.05845 34854 ft 567 kts 44°
2026-05-08 01:46 42.90097 153.13739 34853 ft 568 kts 44°
2026-05-08 01:46 42.95424 153.21720 34855 ft 568 kts 44°
2026-05-08 01:47 43.00735 153.29700 34856 ft 568 kts 44°
2026-05-08 01:47 43.06039 153.37689 34859 ft 568 kts 44°
2026-05-08 01:48 43.13987 153.49704 34862 ft 568 kts 44°
2026-05-08 01:48 43.19279 153.57732 34863 ft 568 kts 44°
2026-05-08 01:49 43.24565 153.65773 34864 ft 568 kts 44°
2026-05-08 01:49 43.29850 153.73835 34871 ft 568 kts 44°
2026-05-08 01:50 43.35094 153.81858 34870 ft 568 kts 44°
2026-05-08 01:50 43.40361 153.89938 34871 ft 568 kts 44°
2026-05-08 01:51 43.45631 153.98045 34873 ft 568 kts 44°
2026-05-08 01:51 43.50891 154.06161 34874 ft 568 kts 44°
2026-05-08 01:52 43.56144 154.14289 34877 ft 568 kts 44°
2026-05-08 01:52 43.61399 154.22442 34879 ft 568 kts 44°
2026-05-08 01:53 43.66644 154.30605 34887 ft 569 kts 44°
2026-05-08 01:53 43.71894 154.38797 34886 ft 569 kts 44°
2026-05-08 01:54 43.77140 154.47007 34893 ft 570 kts 44°
2026-05-08 01:54 43.82390 154.55248 34886 ft 570 kts 44°
2026-05-08 01:55 43.87633 154.63501 34896 ft 571 kts 44°
2026-05-08 01:55 43.92878 154.71780 34897 ft 571 kts 44°
2026-05-08 01:56 43.98116 154.80073 34898 ft 571 kts 44°
2026-05-08 01:56 44.03313 154.88324 34896 ft 571 kts 44°
2026-05-08 01:57 44.08538 154.96646 34904 ft 571 kts 44°
2026-05-08 01:57 44.13763 155.04991 34904 ft 571 kts 44°
2026-05-08 01:58 44.18967 155.13351 34907 ft 572 kts 45°
2026-05-08 01:58 44.24091 155.21846 34911 ft 572 kts 45°
2026-05-08 01:59 44.29182 155.30383 34912 ft 572 kts 45°
2026-05-08 01:59 44.34280 155.38919 34915 ft 572 kts 45°
2026-05-08 02:00 44.39377 155.47451 34916 ft 572 kts 45°
2026-05-08 02:00 44.44468 155.55990 34923 ft 572 kts 45°
2026-05-08 02:01 44.49558 155.64555 34916 ft 571 kts 45°
2026-05-08 02:01 44.54638 155.73132 34923 ft 571 kts 45°
2026-05-08 02:02 44.59703 155.81708 34919 ft 571 kts 45°
2026-05-08 02:02 44.64772 155.90317 34918 ft 572 kts 45°
2026-05-08 02:03 44.69832 155.98937 34923 ft 572 kts 45°
2026-05-08 02:03 44.74854 156.07519 34924 ft 572 kts 45°
2026-05-08 02:04 44.79911 156.16188 34927 ft 573 kts 45°
2026-05-08 02:04 44.84960 156.24868 34931 ft 573 kts 45°
2026-05-08 02:05 44.90011 156.33578 34930 ft 574 kts 45°
2026-05-08 02:05 44.95057 156.42305 34928 ft 574 kts 45°
2026-05-08 02:06 45.00101 156.51057 34933 ft 574 kts 45°
2026-05-08 02:06 45.05133 156.59815 34929 ft 574 kts 45°
2026-05-08 02:07 45.10165 156.68602 34934 ft 575 kts 45°
2026-05-08 02:07 45.15199 156.77416 34926 ft 575 kts 45°
2026-05-08 02:08 45.20226 156.86248 34924 ft 576 kts 45°
2026-05-08 02:08 45.25248 156.95097 34929 ft 576 kts 45°
2026-05-08 02:09 45.30268 157.03973 34926 ft 576 kts 45°
2026-05-08 02:09 45.35284 157.12868 34925 ft 577 kts 45°
2026-05-08 02:10 45.40292 157.21777 34928 ft 577 kts 45°
2026-05-08 02:10 45.45264 157.30649 34920 ft 577 kts 45°
2026-05-08 02:11 45.50267 157.39606 34921 ft 577 kts 45°
2026-05-08 02:11 45.55269 157.48589 34926 ft 578 kts 45°
2026-05-08 02:12 45.60265 157.57590 34927 ft 578 kts 45°
2026-05-08 02:12 45.65230 157.66564 34924 ft 578 kts 45°
2026-05-08 02:13 45.70217 157.75605 34923 ft 579 kts 45°
2026-05-08 02:13 45.75194 157.84659 34925 ft 579 kts 45°
2026-05-08 02:14 45.80170 157.93740 34929 ft 579 kts 45°
2026-05-08 02:14 45.85147 158.02851 34928 ft 579 kts 45°
2026-05-08 02:15 45.90113 158.11974 34929 ft 580 kts 45°
2026-05-08 02:15 45.95073 158.21115 34932 ft 580 kts 45°
2026-05-08 02:16 45.99998 158.30219 34934 ft 580 kts 45°
2026-05-08 02:16 46.04948 158.39402 34932 ft 580 kts 45°
2026-05-08 02:17 46.09893 158.48603 34935 ft 580 kts 45°
2026-05-08 02:17 46.14825 158.57811 34928 ft 580 kts 45°
2026-05-08 02:18 46.19751 158.67039 34933 ft 580 kts 45°
2026-05-08 02:18 46.24660 158.76267 35284 ft 577 kts 45°
2026-05-08 02:19 46.27098 158.80866 35587 ft 575 kts 45°
2026-05-08 02:19 46.29528 158.85455 35833 ft 575 kts 45°
2026-05-08 02:19 46.31959 158.90049 36031 ft 575 kts 45°
2026-05-08 02:19 46.34389 158.94645 36226 ft 575 kts 45°
2026-05-08 02:20 46.36816 158.99247 36438 ft 575 kts 45°
2026-05-08 02:20 46.39211 159.03793 36621 ft 575 kts 45°
2026-05-08 02:20 46.41630 159.08395 36800 ft 575 kts 45°
2026-05-08 02:20 46.44088 159.13078 36916 ft 577 kts 45°
2026-05-08 02:21 46.48936 159.22329 36920 ft 582 kts 45°
2026-05-08 02:21 46.53817 159.31692 36924 ft 581 kts 45°
2026-05-08 02:22 46.58684 159.41062 36920 ft 581 kts 45°
2026-05-08 02:22 46.63553 159.50459 36921 ft 581 kts 45°
2026-05-08 02:23 46.68408 159.59859 36919 ft 581 kts 45°
2026-05-08 02:23 46.73258 159.69284 36920 ft 581 kts 45°
2026-05-08 02:24 46.77285 159.77133 36916 ft 582 kts 45°
2026-05-08 02:24 46.82916 159.88146 36918 ft 582 kts 45°
2026-05-08 02:25 46.87749 159.97633 36916 ft 582 kts 45°
2026-05-08 02:25 46.91790 160.05591 36914 ft 582 kts 45°
2026-05-08 02:26 46.96612 160.15116 36914 ft 582 kts 45°
2026-05-08 02:26 47.01429 160.24665 36911 ft 582 kts 45°
2026-05-08 02:27 47.06201 160.34157 36912 ft 582 kts 45°
2026-05-08 02:27 47.10999 160.43734 36912 ft 582 kts 45°
2026-05-08 02:28 47.15788 160.53325 36910 ft 583 kts 45°
2026-05-08 02:28 47.20570 160.62936 36906 ft 583 kts 45°
2026-05-08 02:29 47.25348 160.72574 36907 ft 582 kts 45°
2026-05-08 02:29 47.30110 160.82213 36904 ft 582 kts 45°
2026-05-08 02:30 47.34870 160.91880 36905 ft 583 kts 45°
2026-05-08 02:30 47.39622 161.01567 36905 ft 583 kts 45°
2026-05-08 02:31 47.44366 161.11270 36904 ft 583 kts 45°
2026-05-08 02:31 47.49101 161.20989 36897 ft 583 kts 45°
2026-05-08 02:32 47.53828 161.30728 36888 ft 583 kts 45°
2026-05-08 02:32 47.58525 161.40535 36898 ft 584 kts 46°
2026-05-08 02:33 47.63126 161.50467 36894 ft 584 kts 47°
2026-05-08 02:33 47.67706 161.60420 36893 ft 584 kts 47°
2026-05-08 02:34 47.72268 161.70313 36890 ft 584 kts 47°
2026-05-08 02:34 47.76855 161.80269 36887 ft 584 kts 47°
2026-05-08 02:35 47.81439 161.90249 36889 ft 584 kts 47°
2026-05-08 02:35 47.86011 162.00245 36888 ft 584 kts 47°
2026-05-08 02:36 47.90568 162.10247 36882 ft 584 kts 47°
2026-05-08 02:36 47.95115 162.20264 36883 ft 583 kts 47°
2026-05-08 02:37 47.99660 162.30311 36881 ft 583 kts 47°
2026-05-08 02:37 48.04162 162.40301 36878 ft 583 kts 47°
2026-05-08 02:38 48.08691 162.50387 36876 ft 583 kts 47°
2026-05-08 02:38 48.13207 162.60484 36878 ft 583 kts 47°
2026-05-08 02:39 48.17710 162.70589 36875 ft 583 kts 47°
2026-05-08 02:39 48.22202 162.80705 36884 ft 583 kts 47°
2026-05-08 02:40 48.26690 162.90851 36875 ft 583 kts 47°
2026-05-08 02:40 48.31143 163.00956 36872 ft 583 kts 47°
2026-05-08 02:41 48.35614 163.11138 36864 ft 583 kts 48°
2026-05-08 02:41 48.40078 163.21345 36863 ft 584 kts 48°
2026-05-08 02:42 48.44534 163.31571 36863 ft 584 kts 48°
2026-05-08 02:42 48.48975 163.41802 36867 ft 584 kts 48°
2026-05-08 02:43 48.53411 163.52061 36861 ft 584 kts 48°
2026-05-08 02:43 48.57813 163.62277 36860 ft 584 kts 48°
2026-05-08 02:44 48.62233 163.72576 36865 ft 584 kts 48°
2026-05-08 02:44 48.66643 163.82891 36861 ft 584 kts 49°
2026-05-08 02:45 48.71054 163.93250 36863 ft 584 kts 49°
2026-05-08 02:45 48.75445 164.03601 36863 ft 584 kts 49°
2026-05-08 02:46 48.79835 164.13987 36863 ft 585 kts 49°
2026-05-08 02:46 48.84214 164.24389 36862 ft 585 kts 49°
2026-05-08 02:47 48.88585 164.34813 36861 ft 585 kts 49°
2026-05-08 02:47 48.92917 164.45183 36862 ft 585 kts 49°
2026-05-08 02:48 48.97273 164.55653 36865 ft 585 kts 49°
2026-05-08 02:48 49.01618 164.66137 36863 ft 586 kts 50°
2026-05-08 02:49 49.05954 164.76642 36859 ft 586 kts 50°
2026-05-08 02:49 49.10287 164.87180 36859 ft 586 kts 50°
2026-05-08 02:50 49.14613 164.97741 36854 ft 586 kts 50°
2026-05-08 02:50 49.18924 165.08310 36857 ft 586 kts 50°
2026-05-08 02:51 49.23229 165.18905 36858 ft 586 kts 50°
2026-05-08 02:51 49.27505 165.29470 36858 ft 586 kts 50°
2026-05-08 02:52 49.31790 165.40103 36846 ft 586 kts 50°
2026-05-08 02:52 49.36068 165.50758 36861 ft 586 kts 50°
2026-05-08 02:53 49.40333 165.61425 36863 ft 586 kts 50°
2026-05-08 02:53 49.44564 165.72049 36855 ft 586 kts 51°
2026-05-08 02:54 49.48809 165.82752 36865 ft 586 kts 51°
2026-05-08 02:54 49.53038 165.93459 36863 ft 585 kts 51°
2026-05-08 02:55 49.59362 166.09550 36866 ft 585 kts 51°
2026-05-08 02:56 49.63558 166.20282 36865 ft 584 kts 51°
2026-05-08 02:56 49.66979 166.31823 36871 ft 596 kts 64°
2026-05-08 02:57 49.69726 166.43905 36865 ft 597 kts 66°
2026-05-08 02:57 49.72337 166.56020 36872 ft 597 kts 66°
2026-05-08 02:58 49.74955 166.68188 36865 ft 596 kts 66°
2026-05-08 02:58 49.77596 166.80405 36870 ft 595 kts 66°
2026-05-08 02:59 49.80199 166.92463 36871 ft 594 kts 66°
2026-05-08 02:59 49.82800 167.04589 36871 ft 593 kts 66°
2026-05-08 03:00 49.85384 167.16710 36874 ft 592 kts 66°
2026-05-08 03:00 49.87956 167.28859 36875 ft 592 kts 66°
2026-05-08 03:01 49.90510 167.40988 36869 ft 591 kts 67°
2026-05-08 03:01 49.93045 167.53105 36870 ft 590 kts 67°
2026-05-08 03:02 49.95567 167.65232 36872 ft 590 kts 67°
2026-05-08 03:02 49.98075 167.77362 36876 ft 589 kts 67°
2026-05-08 03:03 50.00566 167.89487 36878 ft 588 kts 67°
2026-05-08 03:03 50.03023 168.01514 36880 ft 587 kts 67°
2026-05-08 03:04 50.05481 168.13625 36882 ft 586 kts 68°
2026-05-08 03:04 50.07924 168.25735 36882 ft 585 kts 68°
2026-05-08 03:05 50.10349 168.37831 36881 ft 585 kts 68°
2026-05-08 03:05 50.12760 168.49929 36886 ft 584 kts 68°
2026-05-08 03:06 50.15150 168.62002 36885 ft 582 kts 68°
2026-05-08 03:06 50.17524 168.74071 36886 ft 581 kts 68°
2026-05-08 03:07 50.19870 168.86071 36887 ft 581 kts 68°
2026-05-08 03:07 50.22215 168.98133 36884 ft 580 kts 68°
2026-05-08 03:08 50.24542 169.10178 36886 ft 579 kts 69°
2026-05-08 03:08 50.26852 169.22213 36886 ft 577 kts 69°
2026-05-08 03:09 50.29131 169.34165 36891 ft 577 kts 69°
2026-05-08 03:09 50.31410 169.46188 36889 ft 576 kts 69°
2026-05-08 03:10 50.33672 169.58205 36892 ft 575 kts 69°
2026-05-08 03:10 50.35918 169.70211 36892 ft 574 kts 69°
2026-05-08 03:11 50.38147 169.82208 36897 ft 573 kts 69°
2026-05-08 03:11 50.40363 169.94215 36895 ft 572 kts 70°
2026-05-08 03:12 50.42561 170.06198 36896 ft 571 kts 70°
2026-05-08 03:12 50.44727 170.18082 36885 ft 570 kts 70°
2026-05-08 03:13 50.46892 170.30043 36903 ft 569 kts 70°
2026-05-08 03:13 50.49039 170.41977 36908 ft 568 kts 70°
2026-05-08 03:14 50.51172 170.53916 36906 ft 567 kts 70°
2026-05-08 03:14 50.53289 170.65841 36907 ft 566 kts 70°
2026-05-08 03:15 50.55037 170.75750 36903 ft 565 kts 71°
2026-05-08 03:15 50.57126 170.87662 36901 ft 564 kts 71°
2026-05-08 03:16 50.59200 170.99575 36913 ft 563 kts 71°
2026-05-08 03:16 50.61257 171.11462 36913 ft 563 kts 71°
2026-05-08 03:17 50.63300 171.23353 36905 ft 562 kts 71°
2026-05-08 03:17 50.65328 171.35235 36908 ft 561 kts 71°
2026-05-08 03:18 50.67342 171.47116 36910 ft 560 kts 71°
2026-05-08 03:18 50.69337 171.58969 36910 ft 559 kts 72°
2026-05-08 03:19 50.71302 171.70725 36917 ft 558 kts 72°
2026-05-08 03:19 50.73269 171.82568 36910 ft 557 kts 72°
2026-05-08 03:20 50.75218 171.94387 36912 ft 556 kts 72°
2026-05-08 03:20 50.77152 172.06199 36916 ft 555 kts 72°
2026-05-08 03:21 50.79072 172.18007 36915 ft 554 kts 72°
2026-05-08 03:21 50.80978 172.29813 36914 ft 554 kts 73°
2026-05-08 03:22 50.82867 172.41599 36916 ft 553 kts 73°
2026-05-08 03:22 50.84745 172.53392 36917 ft 552 kts 73°
2026-05-08 03:23 50.86607 172.65175 36920 ft 551 kts 73°
2026-05-08 03:23 50.88455 172.76954 36918 ft 551 kts 73°
2026-05-08 03:24 50.90278 172.88655 36916 ft 550 kts 73°
2026-05-08 03:24 50.92097 173.00411 36921 ft 549 kts 73°
2026-05-08 03:25 50.93903 173.12178 36920 ft 548 kts 74°
2026-05-08 03:25 50.95691 173.23907 36924 ft 547 kts 74°
2026-05-08 03:26 50.97467 173.35648 36924 ft 546 kts 74°
2026-05-08 03:26 50.99227 173.47363 36926 ft 546 kts 74°
2026-05-08 03:27 51.00975 173.59091 36925 ft 545 kts 75°
2026-05-08 03:27 51.02707 173.70797 36927 ft 544 kts 75°
2026-05-08 03:28 51.04414 173.82420 36923 ft 544 kts 75°
2026-05-08 03:28 51.06119 173.94120 36927 ft 543 kts 75°
2026-05-08 03:29 51.07810 174.05811 36926 ft 542 kts 75°
2026-05-08 03:29 51.09487 174.17494 36925 ft 541 kts 75°
2026-05-08 03:30 51.11977 174.35008 36929 ft 540 kts 76°
2026-05-08 03:31 51.15249 174.58334 36930 ft 539 kts 76°
2026-05-08 03:32 51.17666 174.75810 36935 ft 538 kts 76°
2026-05-08 03:32 51.19261 174.87456 36938 ft 537 kts 76°
2026-05-08 03:33 51.20842 174.99089 36924 ft 536 kts 76°
2026-05-08 03:33 51.22400 175.10641 36929 ft 536 kts 76°
2026-05-08 03:34 51.23957 175.22283 36942 ft 535 kts 77°
2026-05-08 03:34 51.25498 175.33901 36938 ft 535 kts 77°
2026-05-08 03:35 51.27333 175.45391 36929 ft 533 kts 72°
2026-05-08 03:35 51.29516 175.56711 36938 ft 532 kts 71°
2026-05-08 03:36 51.31641 175.67971 36927 ft 532 kts 72°
2026-05-08 03:36 51.33696 175.79335 36933 ft 531 kts 73°
2026-05-08 03:37 51.35712 175.90711 36930 ft 531 kts 73°
2026-05-08 03:37 51.37713 176.02086 36931 ft 531 kts 73°
2026-05-08 03:38 51.39703 176.13453 36931 ft 530 kts 73°
2026-05-08 03:38 51.41684 176.24831 36934 ft 530 kts 73°
2026-05-08 03:39 51.43651 176.36198 36932 ft 529 kts 73°
2026-05-08 03:39 51.45606 176.47569 36927 ft 529 kts 73°
2026-05-08 03:40 51.47537 176.58879 36928 ft 528 kts 73°
2026-05-08 03:40 51.49466 176.70245 36930 ft 528 kts 74°
2026-05-08 03:41 51.51382 176.81616 36930 ft 527 kts 74°
2026-05-08 03:41 51.53289 176.93000 36927 ft 527 kts 74°
2026-05-08 03:42 51.55168 177.04295 36931 ft 526 kts 74°
2026-05-08 03:42 51.57044 177.15652 36927 ft 525 kts 74°
2026-05-08 03:43 51.58908 177.27005 36930 ft 524 kts 74°
2026-05-08 03:43 51.60757 177.38342 36927 ft 523 kts 75°
2026-05-08 03:44 51.62594 177.49684 36923 ft 523 kts 75°
2026-05-08 03:44 51.64415 177.61005 36924 ft 522 kts 75°
2026-05-08 03:45 51.66220 177.72305 36920 ft 521 kts 75°
2026-05-08 03:45 51.68015 177.83616 36923 ft 520 kts 75°
2026-05-08 03:46 51.69781 177.94817 36924 ft 519 kts 75°
2026-05-08 03:46 51.71547 178.06099 36917 ft 519 kts 75°
2026-05-08 03:47 51.73300 178.17378 36916 ft 518 kts 75°
2026-05-08 03:47 51.74975 178.28230 36912 ft 517 kts 76°
2026-05-08 03:48 51.76705 178.39507 36914 ft 517 kts 76°
2026-05-08 03:48 51.78419 178.50767 36918 ft 516 kts 76°
2026-05-08 03:49 51.80120 178.62015 36911 ft 515 kts 76°
2026-05-08 03:49 51.81810 178.73270 36912 ft 515 kts 76°
2026-05-08 03:50 51.83487 178.84519 36907 ft 514 kts 76°
2026-05-08 03:50 51.85149 178.95750 36912 ft 513 kts 76°
2026-05-08 03:51 51.86800 179.06989 36912 ft 513 kts 76°
2026-05-08 03:51 51.88427 179.18135 36916 ft 512 kts 77°
2026-05-08 03:52 51.90050 179.29341 36912 ft 511 kts 77°
2026-05-08 03:52 51.91661 179.40549 36910 ft 510 kts 77°
2026-05-08 03:53 51.93261 179.51752 36906 ft 510 kts 77°
2026-05-08 03:53 51.94845 179.62937 36907 ft 509 kts 77°
2026-05-08 03:54 51.96418 179.74119 36909 ft 508 kts 77°
2026-05-08 03:54 51.97978 179.85291 36902 ft 507 kts 78°
2026-05-08 03:55 51.99532 179.96449 36905 ft 507 kts 77°
2026-05-08 03:55 52.01834 -179.92740 36901 ft 507 kts 69°
2026-05-08 03:56 52.04478 -179.82117 36905 ft 507 kts 68°
2026-05-08 03:56 52.07139 -179.71589 36900 ft 507 kts 68°
2026-05-08 03:57 52.09800 -179.60977 36895 ft 506 kts 69°
2026-05-08 03:57 52.12435 -179.50365 36890 ft 506 kts 69°
2026-05-08 03:58 52.15051 -179.39759 36899 ft 505 kts 69°
2026-05-08 03:58 52.17657 -179.29143 36901 ft 503 kts 69°
2026-05-08 03:59 52.20243 -179.18562 36888 ft 502 kts 70°
2026-05-08 03:59 52.22816 -179.07982 36880 ft 501 kts 70°
2026-05-08 04:00 52.25373 -178.97417 36878 ft 500 kts 70°
2026-05-08 04:00 52.27915 -178.86865 36879 ft 499 kts 70°
2026-05-08 04:01 52.30429 -178.76380 36883 ft 498 kts 70°
2026-05-08 04:01 52.32949 -178.65820 36880 ft 497 kts 70°
2026-05-08 04:02 52.35449 -178.55291 36877 ft 497 kts 70°
2026-05-08 04:02 52.37939 -178.44748 36872 ft 496 kts 71°
2026-05-08 04:03 52.39995 -178.36006 36873 ft 495 kts 71°
2026-05-08 04:03 52.43694 -178.20188 36867 ft 495 kts 71°
2026-05-08 04:04 52.46143 -178.09648 36868 ft 494 kts 71°
2026-05-08 04:04 52.48583 -177.99099 36867 ft 494 kts 71°
2026-05-08 04:05 52.50995 -177.88614 36864 ft 494 kts 71°
2026-05-08 04:05 52.53417 -177.78038 36859 ft 494 kts 71°
2026-05-08 04:06 52.55827 -177.67457 36864 ft 494 kts 71°
2026-05-08 04:06 52.58225 -177.56879 36855 ft 493 kts 71°
2026-05-08 04:07 52.60610 -177.46304 36854 ft 493 kts 71°
2026-05-08 04:07 52.62973 -177.35776 36855 ft 493 kts 72°
2026-05-08 04:08 52.65338 -177.25181 36854 ft 493 kts 72°
2026-05-08 04:08 52.67697 -177.14563 36856 ft 492 kts 72°
2026-05-08 04:09 52.70044 -177.03943 36856 ft 492 kts 72°
2026-05-08 04:09 52.72379 -176.93328 36853 ft 492 kts 72°
2026-05-08 04:10 52.74689 -176.82766 36855 ft 492 kts 72°
2026-05-08 04:10 52.77002 -176.72138 36856 ft 492 kts 72°
2026-05-08 04:11 52.79308 -176.61489 36854 ft 492 kts 72°
2026-05-08 04:11 52.81602 -176.50838 36856 ft 492 kts 72°
2026-05-08 04:12 52.83887 -176.40177 36857 ft 491 kts 72°
2026-05-08 04:12 52.86143 -176.29593 36852 ft 491 kts 72°
2026-05-08 04:13 52.88405 -176.18923 36853 ft 491 kts 72°
2026-05-08 04:13 52.90656 -176.08251 36857 ft 490 kts 72°
2026-05-08 04:14 52.92895 -175.97581 36858 ft 490 kts 72°
2026-05-08 04:14 52.95123 -175.86906 36859 ft 490 kts 72°
2026-05-08 04:15 52.97331 -175.76271 36851 ft 489 kts 72°
2026-05-08 04:15 52.99539 -175.65578 36855 ft 489 kts 73°
2026-05-08 04:16 53.01732 -175.54899 36856 ft 488 kts 73°
2026-05-08 04:16 53.03912 -175.44229 36850 ft 488 kts 73°
2026-05-08 04:17 53.06085 -175.33527 36856 ft 487 kts 73°
2026-05-08 04:17 53.08230 -175.22912 36858 ft 487 kts 73°
2026-05-08 04:18 53.10377 -175.12233 36860 ft 486 kts 73°
2026-05-08 04:18 53.12514 -175.01541 36864 ft 486 kts 73°
2026-05-08 04:19 53.14643 -174.90825 36864 ft 486 kts 73°
2026-05-08 04:19 53.16759 -174.80123 36868 ft 486 kts 73°
2026-05-08 04:20 53.18850 -174.69484 36871 ft 486 kts 73°
2026-05-08 04:20 53.20951 -174.58745 36877 ft 486 kts 73°
2026-05-08 04:21 53.23037 -174.48021 36882 ft 486 kts 74°
2026-05-08 04:21 53.25113 -174.37283 36877 ft 485 kts 74°
2026-05-08 04:22 53.27176 -174.26547 36873 ft 485 kts 74°
2026-05-08 04:22 53.29233 -174.15789 36888 ft 486 kts 74°
2026-05-08 04:23 53.31281 -174.05017 36882 ft 485 kts 74°
2026-05-08 04:23 53.33302 -173.94326 36884 ft 485 kts 74°
2026-05-08 04:24 53.35327 -173.83549 36890 ft 485 kts 74°
2026-05-08 04:24 53.37343 -173.72760 36889 ft 485 kts 74°
2026-05-08 04:25 53.39350 -173.61960 36894 ft 485 kts 74°
2026-05-08 04:25 53.41349 -173.51139 36898 ft 485 kts 75°
2026-05-08 04:26 53.43322 -173.40391 36896 ft 485 kts 75°
2026-05-08 04:26 53.45300 -173.29563 36909 ft 485 kts 75°
2026-05-08 04:27 53.47271 -173.18712 36909 ft 485 kts 75°
2026-05-08 04:27 53.49228 -173.07865 36907 ft 485 kts 75°
2026-05-08 04:28 53.51177 -172.96997 36906 ft 485 kts 75°
2026-05-08 04:28 53.53103 -172.86190 36910 ft 485 kts 75°
2026-05-08 04:29 53.55021 -172.75327 36904 ft 484 kts 73°
2026-05-08 04:29 53.56934 -172.64478 36911 ft 484 kts 73°
2026-05-08 04:30 53.58841 -172.53601 36918 ft 484 kts 73°
2026-05-08 04:30 53.60735 -172.42721 36911 ft 484 kts 73°
2026-05-08 04:31 53.62622 -172.31813 36911 ft 485 kts 73°
2026-05-08 04:31 53.64500 -172.20889 36930 ft 485 kts 73°
2026-05-08 04:32 53.66369 -172.09949 36923 ft 486 kts 73°
2026-05-08 04:32 53.68229 -171.98987 36930 ft 486 kts 73°
2026-05-08 04:33 53.70070 -171.88074 36926 ft 487 kts 73°
2026-05-08 04:33 53.71918 -171.77050 36936 ft 487 kts 73°
2026-05-08 04:34 53.73757 -171.66015 36926 ft 487 kts 73°
2026-05-08 04:34 53.75572 -171.55050 36930 ft 488 kts 73°
2026-05-08 04:35 53.77390 -171.44000 36937 ft 488 kts 74°
2026-05-08 04:35 53.79202 -171.32911 36944 ft 489 kts 74°
2026-05-08 04:36 53.81002 -171.21820 36935 ft 489 kts 74°
2026-05-08 04:36 53.82796 -171.10700 36932 ft 489 kts 74°
2026-05-08 04:37 53.84578 -170.99576 36933 ft 489 kts 74°
2026-05-08 04:37 53.86343 -170.88489 36944 ft 490 kts 74°
2026-05-08 04:38 53.88106 -170.77344 36936 ft 490 kts 74°
2026-05-08 04:38 53.89858 -170.66189 36930 ft 490 kts 74°
2026-05-08 04:39 53.91600 -170.55017 36937 ft 490 kts 74°
2026-05-08 04:39 53.93333 -170.43827 36937 ft 490 kts 75°
2026-05-08 04:40 53.95056 -170.32634 36936 ft 491 kts 75°
2026-05-08 04:40 53.96761 -170.21475 36938 ft 491 kts 75°
2026-05-08 04:41 53.98468 -170.10228 36945 ft 491 kts 75°
2026-05-08 04:41 54.00163 -169.98981 36951 ft 491 kts 75°
2026-05-08 04:42 54.01809 -169.87711 36943 ft 491 kts 76°
2026-05-08 04:42 54.03398 -169.76482 36941 ft 491 kts 76°
2026-05-08 04:43 54.04988 -169.65191 36949 ft 490 kts 76°
2026-05-08 04:43 54.06578 -169.53882 36944 ft 490 kts 76°
2026-05-08 04:44 54.08160 -169.42573 36946 ft 490 kts 76°
2026-05-08 04:44 54.09730 -169.31273 36946 ft 490 kts 76°
2026-05-08 04:45 54.11275 -169.20052 36950 ft 490 kts 76°
2026-05-08 04:45 54.12823 -169.08726 36948 ft 490 kts 76°
2026-05-08 04:46 54.14360 -168.97392 36948 ft 490 kts 76°
2026-05-08 04:46 54.15887 -168.86049 36956 ft 490 kts 76°
2026-05-08 04:47 54.17404 -168.74691 36956 ft 490 kts 77°
2026-05-08 04:47 54.18908 -168.63341 36953 ft 490 kts 77°
2026-05-08 04:48 54.20403 -168.51976 36954 ft 490 kts 77°
2026-05-08 04:48 54.21877 -168.40676 36957 ft 490 kts 77°
2026-05-08 04:49 54.23349 -168.29307 36957 ft 490 kts 77°
2026-05-08 04:49 54.24809 -168.17932 36955 ft 489 kts 77°
2026-05-08 04:50 54.26259 -168.06544 36960 ft 489 kts 77°
2026-05-08 04:50 54.27452 -167.97103 36958 ft 489 kts 77°
2026-05-08 04:51 54.28881 -167.85717 36956 ft 489 kts 77°
2026-05-08 04:51 54.30301 -167.74307 36959 ft 489 kts 77°
2026-05-08 04:52 54.31708 -167.62904 36962 ft 489 kts 78°
2026-05-08 04:52 54.33097 -167.51554 36964 ft 489 kts 78°
2026-05-08 04:53 54.34482 -167.40144 36959 ft 489 kts 78°
2026-05-08 04:53 54.35857 -167.28724 36966 ft 489 kts 78°
2026-05-08 04:54 54.37221 -167.17292 36967 ft 489 kts 78°
2026-05-08 04:54 54.38574 -167.05853 36968 ft 489 kts 78°
2026-05-08 04:55 54.39917 -166.94401 36969 ft 489 kts 78°
2026-05-08 04:55 54.41249 -166.82943 36974 ft 489 kts 78°
2026-05-08 04:56 54.42570 -166.71479 36979 ft 489 kts 78°
2026-05-08 04:56 54.43879 -166.60016 36980 ft 489 kts 78°
2026-05-08 04:57 54.45180 -166.48524 36981 ft 490 kts 78°
2026-05-08 04:57 54.46460 -166.37107 36984 ft 490 kts 79°
2026-05-08 04:58 54.47742 -166.25581 36981 ft 490 kts 79°
2026-05-08 04:58 54.49010 -166.14059 36979 ft 490 kts 79°
2026-05-08 04:59 54.50271 -166.02509 36974 ft 490 kts 79°
2026-05-08 04:59 54.51518 -165.90972 36972 ft 491 kts 79°
2026-05-08 05:00 54.52755 -165.79427 36974 ft 491 kts 79°
2026-05-08 05:00 54.53974 -165.67928 36965 ft 491 kts 79°
2026-05-08 05:01 54.55188 -165.56369 36967 ft 491 kts 79°
2026-05-08 05:01 54.56393 -165.44786 36966 ft 491 kts 79°
2026-05-08 05:02 54.57587 -165.33197 36969 ft 491 kts 79°
2026-05-08 05:02 54.58770 -165.21602 36965 ft 491 kts 80°
2026-05-08 05:03 54.59935 -165.10063 36961 ft 491 kts 80°
2026-05-08 05:03 54.61098 -164.98432 36957 ft 492 kts 80°
2026-05-08 05:04 54.62250 -164.86793 36957 ft 492 kts 80°
2026-05-08 05:04 54.63392 -164.75137 36957 ft 492 kts 80°
2026-05-08 05:05 54.64522 -164.63479 36958 ft 492 kts 80°
2026-05-08 05:05 54.65640 -164.51817 36959 ft 492 kts 80°
2026-05-08 05:06 54.66743 -164.40198 36953 ft 493 kts 81°
2026-05-08 05:06 54.67841 -164.28506 36953 ft 493 kts 81°
2026-05-08 05:07 54.68929 -164.16796 36952 ft 493 kts 81°
2026-05-08 05:07 54.70005 -164.05080 36955 ft 494 kts 81°
2026-05-08 05:08 54.71072 -163.93332 36958 ft 494 kts 81°
2026-05-08 05:08 54.72127 -163.81591 36952 ft 494 kts 81°
2026-05-08 05:09 54.73172 -163.69834 36955 ft 495 kts 81°
2026-05-08 05:09 54.74201 -163.58117 36955 ft 495 kts 81°
2026-05-08 05:10 54.75733 -163.40416 36974 ft 495 kts 81°
2026-05-08 05:11 54.76740 -163.28607 36976 ft 495 kts 82°
2026-05-08 05:11 54.77737 -163.16775 36972 ft 496 kts 82°
2026-05-08 05:12 54.78718 -163.05001 36969 ft 496 kts 82°
2026-05-08 05:12 54.79692 -162.93161 36967 ft 497 kts 82°
2026-05-08 05:13 54.80654 -162.81311 36958 ft 497 kts 82°
2026-05-08 05:13 54.81607 -162.69431 36959 ft 497 kts 82°
2026-05-08 05:14 54.82550 -162.57539 36951 ft 498 kts 82°
2026-05-08 05:14 54.83480 -162.45636 36953 ft 498 kts 82°
2026-05-08 05:15 54.84399 -162.33731 36954 ft 498 kts 82°
2026-05-08 05:15 54.85309 -162.21782 36955 ft 499 kts 83°
2026-05-08 05:16 54.86207 -162.09832 36958 ft 499 kts 83°
2026-05-08 05:16 54.87088 -161.97960 36960 ft 499 kts 83°
2026-05-08 05:17 54.87963 -161.85988 36961 ft 500 kts 83°
2026-05-08 05:17 54.88828 -161.74004 36959 ft 500 kts 83°
2026-05-08 05:18 54.89682 -161.61987 36956 ft 501 kts 83°
2026-05-08 05:18 54.90525 -161.49956 36960 ft 502 kts 83°
2026-05-08 05:19 54.91356 -161.37919 36955 ft 502 kts 83°
2026-05-08 05:19 54.92172 -161.25934 36952 ft 502 kts 83°
2026-05-08 05:20 54.92985 -161.13808 36953 ft 502 kts 84°
2026-05-08 05:20 54.93777 -161.01818 36953 ft 502 kts 84°
2026-05-08 05:21 54.94562 -160.89729 36950 ft 503 kts 84°
2026-05-08 05:21 54.95337 -160.77618 36952 ft 503 kts 84°
2026-05-08 05:22 54.96099 -160.65516 36950 ft 503 kts 84°
2026-05-08 05:22 54.96851 -160.53389 36947 ft 503 kts 84°
2026-05-08 05:23 54.97588 -160.41284 36948 ft 503 kts 84°
2026-05-08 05:23 54.98311 -160.29223 36943 ft 504 kts 84°
2026-05-08 05:24 54.99027 -160.17074 36941 ft 504 kts 85°
2026-05-08 05:24 54.99730 -160.04926 36946 ft 504 kts 85°
2026-05-08 05:25 55.01023 -159.92942 36940 ft 504 kts 77°
2026-05-08 05:25 55.02690 -159.81061 36940 ft 505 kts 76°
2026-05-08 05:26 55.04399 -159.69172 36939 ft 505 kts 76°
2026-05-08 05:26 55.06076 -159.57364 36938 ft 505 kts 77°
2026-05-08 05:27 55.07755 -159.45379 36934 ft 506 kts 77°
2026-05-08 05:27 55.09396 -159.33529 36935 ft 506 kts 77°
2026-05-08 05:28 55.11040 -159.21569 36934 ft 506 kts 77°
2026-05-08 05:28 55.12674 -159.09587 36930 ft 507 kts 77°
2026-05-08 05:29 55.14298 -158.97590 36926 ft 507 kts 77°
2026-05-08 05:29 55.15912 -158.85565 36926 ft 508 kts 77°
2026-05-08 05:30 55.17516 -158.73522 36932 ft 508 kts 77°
2026-05-08 05:30 55.19110 -158.61460 36922 ft 508 kts 78°
2026-05-08 05:31 55.20681 -158.49465 36923 ft 509 kts 78°
2026-05-08 05:31 55.22250 -158.37382 36921 ft 509 kts 78°
2026-05-08 05:32 55.23808 -158.25290 36925 ft 509 kts 78°
2026-05-08 05:32 55.25355 -158.13177 36926 ft 509 kts 78°
2026-05-08 05:33 55.26891 -158.01053 36919 ft 509 kts 78°
2026-05-08 05:33 55.28404 -157.88997 36923 ft 509 kts 78°
2026-05-08 05:34 55.29915 -157.76856 36917 ft 509 kts 78°
2026-05-08 05:34 55.31416 -157.64691 36915 ft 509 kts 78°
2026-05-08 05:35 55.32903 -157.52527 36913 ft 510 kts 79°
2026-05-08 05:35 55.34371 -157.40415 36907 ft 510 kts 79°
2026-05-08 05:36 55.35837 -157.28213 36914 ft 510 kts 79°
2026-05-08 05:36 55.37293 -157.15985 36904 ft 511 kts 79°
2026-05-08 05:37 55.38736 -157.03750 36904 ft 511 kts 79°
2026-05-08 05:37 55.40166 -156.91516 36906 ft 511 kts 79°
2026-05-08 05:38 55.41584 -156.79271 36898 ft 511 kts 79°
2026-05-08 05:38 55.42988 -156.67029 36906 ft 511 kts 79°
2026-05-08 05:39 55.44149 -156.56826 36900 ft 511 kts 79°
2026-05-08 05:39 55.45535 -156.44534 36901 ft 511 kts 80°
2026-05-08 05:40 55.46909 -156.32231 36906 ft 511 kts 80°
2026-05-08 05:40 55.48268 -156.19933 37225 ft 511 kts 80°
2026-05-08 05:40 55.48942 -156.13789 37548 ft 508 kts 80°
2026-05-08 05:41 55.49610 -156.07672 37828 ft 507 kts 80°
2026-05-08 05:41 55.50275 -156.01552 38062 ft 507 kts 80°
2026-05-08 05:41 55.50936 -155.95444 38276 ft 507 kts 80°
2026-05-08 05:41 55.51586 -155.89401 38483 ft 507 kts 80°
2026-05-08 05:42 55.52241 -155.83292 38672 ft 507 kts 80°
2026-05-08 05:42 55.52892 -155.77177 38805 ft 507 kts 80°
2026-05-08 05:42 55.53542 -155.71043 38877 ft 509 kts 80°
2026-05-08 05:43 55.54836 -155.58739 38886 ft 510 kts 80°
2026-05-08 05:43 55.56119 -155.46419 38883 ft 510 kts 80°
2026-05-08 05:44 55.57391 -155.34097 38883 ft 510 kts 81°
2026-05-08 05:44 55.58648 -155.21755 38881 ft 510 kts 81°
2026-05-08 05:45 55.59897 -155.09396 38880 ft 511 kts 81°
2026-05-08 05:45 55.61132 -154.97035 38882 ft 511 kts 81°
2026-05-08 05:46 55.62356 -154.84640 38878 ft 511 kts 81°
2026-05-08 05:46 55.63568 -154.72225 38876 ft 511 kts 81°
2026-05-08 05:47 55.64768 -154.59810 38876 ft 512 kts 81°
2026-05-08 05:47 55.65947 -154.47484 38876 ft 512 kts 81°
2026-05-08 05:48 55.67124 -154.35043 38871 ft 512 kts 82°
2026-05-08 05:48 55.68288 -154.22596 38868 ft 512 kts 82°
2026-05-08 05:49 55.69439 -154.10136 38870 ft 512 kts 82°
2026-05-08 05:49 55.70577 -153.97672 38868 ft 512 kts 82°
2026-05-08 05:50 55.71703 -153.85196 38867 ft 512 kts 82°
2026-05-08 05:50 55.72816 -153.72716 38863 ft 512 kts 82°
2026-05-08 05:51 55.73917 -153.60214 38862 ft 512 kts 82°
2026-05-08 05:51 55.75005 -153.47720 38863 ft 512 kts 82°
2026-05-08 05:52 55.76081 -153.35218 38860 ft 512 kts 82°
2026-05-08 05:52 55.77142 -153.22726 38859 ft 512 kts 82°
2026-05-08 05:53 55.78184 -153.10308 38858 ft 512 kts 82°
2026-05-08 05:53 55.79221 -152.97792 38856 ft 512 kts 83°
2026-05-08 05:54 55.80245 -152.85268 38849 ft 511 kts 83°
2026-05-08 05:54 55.81253 -152.72770 38855 ft 511 kts 83°
2026-05-08 05:55 55.82251 -152.60242 38850 ft 511 kts 83°
2026-05-08 05:55 55.83234 -152.47739 38851 ft 510 kts 83°
2026-05-08 05:56 55.84204 -152.35242 38850 ft 510 kts 83°
2026-05-08 05:56 55.85161 -152.22733 38851 ft 510 kts 83°
2026-05-08 05:57 55.86105 -152.10216 38853 ft 509 kts 83°
2026-05-08 05:57 55.87035 -151.97714 38852 ft 509 kts 84°
2026-05-08 05:58 55.87952 -151.85209 38852 ft 509 kts 84°
2026-05-08 05:58 55.88857 -151.72701 38853 ft 509 kts 84°
2026-05-08 05:59 55.89746 -151.60209 38853 ft 508 kts 84°
2026-05-08 05:59 55.90623 -151.47723 38855 ft 508 kts 84°
2026-05-08 06:00 55.91488 -151.35225 38856 ft 508 kts 84°
2026-05-08 06:00 55.92339 -151.22739 38859 ft 507 kts 84°
2026-05-08 06:01 55.93172 -151.10328 38859 ft 507 kts 84°
2026-05-08 06:01 55.93997 -150.97834 38866 ft 507 kts 84°
2026-05-08 06:02 55.94809 -150.85341 38861 ft 507 kts 84°
2026-05-08 06:02 55.95607 -150.72852 38862 ft 506 kts 85°
2026-05-08 06:03 55.96394 -150.60359 38867 ft 506 kts 85°
2026-05-08 06:03 55.97168 -150.47871 38868 ft 506 kts 85°
2026-05-08 06:04 55.97929 -150.35377 38870 ft 506 kts 85°
2026-05-08 06:04 55.98677 -150.22879 38869 ft 506 kts 85°
2026-05-08 06:05 55.99411 -150.10375 38870 ft 506 kts 85°
2026-05-08 06:05 56.00134 -149.97868 38877 ft 506 kts 85°
2026-05-08 06:06 56.00839 -149.85382 38881 ft 505 kts 85°
2026-05-08 06:06 56.01525 -149.72899 38877 ft 505 kts 85°
2026-05-08 06:07 56.02196 -149.60487 38874 ft 504 kts 86°
2026-05-08 06:07 56.02859 -149.48004 38873 ft 504 kts 86°
2026-05-08 06:08 56.03509 -149.35526 38884 ft 504 kts 86°
2026-05-08 06:08 56.04147 -149.23055 38878 ft 503 kts 86°
2026-05-08 06:09 56.04771 -149.10587 38885 ft 503 kts 86°
2026-05-08 06:09 56.05384 -148.98108 38884 ft 503 kts 86°
2026-05-08 06:10 56.05983 -148.85648 38891 ft 502 kts 86°
2026-05-08 06:10 56.06567 -148.73204 38888 ft 502 kts 86°
2026-05-08 06:11 56.07139 -148.60746 38893 ft 502 kts 86°
2026-05-08 06:11 56.07700 -148.48289 38895 ft 502 kts 87°
2026-05-08 06:12 56.08247 -148.35837 38895 ft 501 kts 87°
2026-05-08 06:12 56.08782 -148.23389 38895 ft 501 kts 87°
2026-05-08 06:13 56.09303 -148.10941 38899 ft 501 kts 87°
2026-05-08 06:13 56.09808 -147.98560 38900 ft 501 kts 87°
2026-05-08 06:14 56.10304 -147.86120 38904 ft 501 kts 88°
2026-05-08 06:14 56.10788 -147.73672 38904 ft 500 kts 88°
2026-05-08 06:15 56.11258 -147.61247 38907 ft 500 kts 88°
2026-05-08 06:15 56.11717 -147.48811 38912 ft 500 kts 88°
2026-05-08 06:16 56.12162 -147.36398 38913 ft 499 kts 88°
2026-05-08 06:16 56.12596 -147.23959 38918 ft 499 kts 88°
2026-05-08 06:17 56.13220 -147.05326 38920 ft 499 kts 88°
2026-05-08 06:17 56.13618 -146.92996 38919 ft 498 kts 88°
2026-05-08 06:18 56.14006 -146.80593 38926 ft 498 kts 88°
2026-05-08 06:18 56.14381 -146.68206 38925 ft 498 kts 89°
2026-05-08 06:19 56.14744 -146.55810 38928 ft 497 kts 89°
2026-05-08 06:19 56.15095 -146.43428 38930 ft 497 kts 89°
2026-05-08 06:20 56.15433 -146.31046 38926 ft 497 kts 89°
2026-05-08 06:20 56.15757 -146.18668 38927 ft 497 kts 89°
2026-05-08 06:21 56.16069 -146.06280 38931 ft 496 kts 89°
2026-05-08 06:21 56.16369 -145.93903 38933 ft 496 kts 89°
2026-05-08 06:22 56.16657 -145.81537 38937 ft 496 kts 89°
2026-05-08 06:22 56.16931 -145.69245 38947 ft 495 kts 90°
2026-05-08 06:23 56.17193 -145.56900 38940 ft 495 kts 90°
2026-05-08 06:23 56.17443 -145.44556 38943 ft 495 kts 90°
2026-05-08 06:24 56.17680 -145.32215 38956 ft 495 kts 90°
2026-05-08 06:24 56.17906 -145.19870 38944 ft 494 kts 90°
2026-05-08 06:25 56.18119 -145.07526 38957 ft 494 kts 90°
2026-05-08 06:25 56.18319 -144.95203 38957 ft 494 kts 90°
2026-05-08 06:26 56.18507 -144.82866 38960 ft 494 kts 90°
2026-05-08 06:26 56.18683 -144.70533 38961 ft 494 kts 91°
2026-05-08 06:27 56.18820 -144.60296 38962 ft 493 kts 91°
2026-05-08 06:27 56.18973 -144.47977 38964 ft 493 kts 91°
2026-05-08 06:28 56.19114 -144.35677 38969 ft 492 kts 91°
2026-05-08 06:28 56.19242 -144.23385 38970 ft 492 kts 91°
2026-05-08 06:29 56.19359 -144.11108 38975 ft 492 kts 91°
2026-05-08 06:29 56.19463 -143.98833 38975 ft 492 kts 91°
2026-05-08 06:30 56.19210 -143.86589 38975 ft 490 kts 96°
2026-05-08 06:30 56.18681 -143.74394 38979 ft 490 kts 97°
2026-05-08 06:31 56.18181 -143.62274 38979 ft 490 kts 96°
2026-05-08 06:31 56.17725 -143.50083 38980 ft 490 kts 96°
2026-05-08 06:32 56.17279 -143.37871 38981 ft 490 kts 96°
2026-05-08 06:32 56.16823 -143.25681 38989 ft 490 kts 96°
2026-05-08 06:33 56.16352 -143.13489 38989 ft 490 kts 96°
2026-05-08 06:33 56.15867 -143.01292 38990 ft 490 kts 96°
2026-05-08 06:34 56.15372 -142.89160 38992 ft 490 kts 97°
2026-05-08 06:34 56.14862 -142.76961 38998 ft 490 kts 97°
2026-05-08 06:35 56.14341 -142.64768 38997 ft 490 kts 97°
2026-05-08 06:35 56.13807 -142.52573 38994 ft 490 kts 97°
2026-05-08 06:36 56.13261 -142.40379 39000 ft 490 kts 97°
2026-05-08 06:36 56.12703 -142.28177 39001 ft 491 kts 97°
2026-05-08 06:37 56.12137 -142.16069 39002 ft 491 kts 97°
2026-05-08 06:37 56.11554 -142.03865 39006 ft 491 kts 97°
2026-05-08 06:38 56.10959 -141.91661 39006 ft 491 kts 97°
2026-05-08 06:38 56.10353 -141.79460 39006 ft 492 kts 98°
2026-05-08 06:39 56.09734 -141.67257 39011 ft 492 kts 98°
2026-05-08 06:39 56.09102 -141.55056 39011 ft 492 kts 98°
2026-05-08 06:40 56.08459 -141.42850 39013 ft 492 kts 98°
2026-05-08 06:40 56.07802 -141.30644 39019 ft 492 kts 98°
2026-05-08 06:41 56.07134 -141.18449 39017 ft 492 kts 98°
2026-05-08 06:41 56.06455 -141.06261 39017 ft 492 kts 99°
2026-05-08 06:42 56.05762 -140.94062 39014 ft 492 kts 99°
2026-05-08 06:42 56.05059 -140.81888 39022 ft 492 kts 99°
2026-05-08 06:43 56.04345 -140.69729 39020 ft 492 kts 99°
2026-05-08 06:43 56.03621 -140.57632 39021 ft 491 kts 99°
2026-05-08 06:44 56.02883 -140.45495 39024 ft 491 kts 99°
2026-05-08 06:44 56.02134 -140.33364 39024 ft 491 kts 100°
2026-05-08 06:45 56.01371 -140.21225 39026 ft 491 kts 100°
2026-05-08 06:45 56.00599 -140.09112 39027 ft 490 kts 100°
2026-05-08 06:46 55.99817 -139.97017 39027 ft 490 kts 100°
2026-05-08 06:46 55.99099 -139.84918 39031 ft 490 kts 99°
2026-05-08 06:47 55.98404 -139.72811 39031 ft 490 kts 99°
2026-05-08 06:47 55.97689 -139.60717 39029 ft 489 kts 100°
2026-05-08 06:48 55.96952 -139.48633 39033 ft 489 kts 100°
2026-05-08 06:48 55.96200 -139.36561 39034 ft 489 kts 100°
2026-05-08 06:49 55.95438 -139.24512 39032 ft 489 kts 100°
2026-05-08 06:49 55.94664 -139.12449 39045 ft 489 kts 101°
2026-05-08 06:50 55.93884 -139.00483 39035 ft 489 kts 101°
2026-05-08 06:50 55.93088 -138.88456 39036 ft 488 kts 101°
2026-05-08 06:51 55.92280 -138.76432 39034 ft 488 kts 101°
2026-05-08 06:51 55.91462 -138.64425 39035 ft 488 kts 101°
2026-05-08 06:52 55.90625 -138.52342 39036 ft 488 kts 101°
2026-05-08 06:52 55.89790 -138.40435 39035 ft 488 kts 101°
2026-05-08 06:53 55.88937 -138.28458 39039 ft 487 kts 101°
2026-05-08 06:53 55.88072 -138.16471 39035 ft 488 kts 101°
2026-05-08 06:54 55.87194 -138.04487 39035 ft 488 kts 101°
2026-05-08 06:54 55.86306 -137.92510 39039 ft 488 kts 101°
2026-05-08 06:55 55.85407 -137.80555 39041 ft 487 kts 102°
2026-05-08 06:55 55.84497 -137.68614 39036 ft 487 kts 102°
2026-05-08 06:56 55.83573 -137.56647 39034 ft 487 kts 102°
2026-05-08 06:56 55.82638 -137.44703 39038 ft 487 kts 102°
2026-05-08 06:57 55.81691 -137.32740 39038 ft 487 kts 102°
2026-05-08 06:57 55.80738 -137.20864 39036 ft 488 kts 102°
2026-05-08 06:58 55.79767 -137.08924 39035 ft 488 kts 102°
2026-05-08 06:58 55.78785 -136.96977 39033 ft 488 kts 102°
2026-05-08 06:59 55.77791 -136.85039 39031 ft 488 kts 102°
2026-05-08 06:59 55.76784 -136.73093 39031 ft 489 kts 102°
2026-05-08 07:00 55.75766 -136.61152 39037 ft 489 kts 102°
2026-05-08 07:00 55.74735 -136.49214 39041 ft 489 kts 102°
2026-05-08 07:01 55.73692 -136.37270 39038 ft 490 kts 103°
2026-05-08 07:01 55.72644 -136.25401 39031 ft 490 kts 103°
2026-05-08 07:02 55.71576 -136.13441 39028 ft 491 kts 103°
2026-05-08 07:02 55.70495 -136.01480 39025 ft 491 kts 103°
2026-05-08 07:03 55.69401 -135.89515 39031 ft 492 kts 103°
2026-05-08 07:03 55.68296 -135.77554 39027 ft 492 kts 103°
2026-05-08 07:04 55.67177 -135.65579 39025 ft 492 kts 103°
2026-05-08 07:04 55.66046 -135.53604 39027 ft 493 kts 103°
2026-05-08 07:05 55.64908 -135.41691 39026 ft 493 kts 103°
2026-05-08 07:05 55.63744 -135.29630 39020 ft 494 kts 103°
2026-05-08 07:06 55.62584 -135.17742 39017 ft 494 kts 103°
2026-05-08 07:06 55.61403 -135.05758 39014 ft 494 kts 104°
2026-05-08 07:07 55.60208 -134.93765 39016 ft 495 kts 104°
2026-05-08 07:07 55.59002 -134.81776 39017 ft 495 kts 104°
2026-05-08 07:08 55.57781 -134.69774 39018 ft 496 kts 104°
2026-05-08 07:08 55.56549 -134.57775 39015 ft 496 kts 104°
2026-05-08 07:09 55.55311 -134.45855 39016 ft 496 kts 104°
2026-05-08 07:09 55.54054 -134.33861 39019 ft 497 kts 104°
2026-05-08 07:10 55.52785 -134.21867 39015 ft 497 kts 104°
2026-05-08 07:10 55.51504 -134.09884 39015 ft 498 kts 104°
2026-05-08 07:11 55.50207 -133.97868 39017 ft 498 kts 104°
2026-05-08 07:11 55.48897 -133.85849 39016 ft 498 kts 105°
2026-05-08 07:12 55.47799 -133.75871 39018 ft 499 kts 105°
2026-05-08 07:12 55.46248 -133.61904 39019 ft 499 kts 105°
2026-05-08 07:13 55.45119 -133.51824 39017 ft 500 kts 105°
2026-05-08 07:13 55.43770 -133.39892 39013 ft 500 kts 105°
2026-05-08 07:14 55.42398 -133.27869 39014 ft 501 kts 105°
2026-05-08 07:14 55.41014 -133.15855 39012 ft 501 kts 105°
2026-05-08 07:15 55.39616 -133.03823 39012 ft 502 kts 105°
2026-05-08 07:15 55.38205 -132.91793 39015 ft 502 kts 105°
2026-05-08 07:16 55.36782 -132.79766 39019 ft 503 kts 105°
2026-05-08 07:16 55.35354 -132.67803 39026 ft 503 kts 106°
2026-05-08 07:17 55.33904 -132.55773 39030 ft 503 kts 106°
2026-05-08 07:17 55.32442 -132.43740 39037 ft 504 kts 106°
2026-05-08 07:18 55.30965 -132.31698 39020 ft 505 kts 106°
2026-05-08 07:18 55.29475 -132.19644 39025 ft 505 kts 106°
2026-05-08 07:19 55.27972 -132.07591 39028 ft 506 kts 106°
2026-05-08 07:19 55.26456 -131.95542 39021 ft 506 kts 106°
2026-05-08 07:20 55.24936 -131.83574 39033 ft 506 kts 107°
2026-05-08 07:20 55.23393 -131.71527 39022 ft 507 kts 107°
2026-05-08 07:21 55.21837 -131.59470 39023 ft 507 kts 107°
2026-05-08 07:21 55.20267 -131.47414 39021 ft 508 kts 107°
2026-05-08 07:22 55.18686 -131.35363 39017 ft 508 kts 107°
2026-05-08 07:22 55.17087 -131.23287 39018 ft 509 kts 107°
2026-05-08 07:23 55.15477 -131.11228 39017 ft 509 kts 107°
2026-05-08 07:23 55.13854 -130.99160 39010 ft 510 kts 107°
2026-05-08 07:24 55.12218 -130.87102 39016 ft 511 kts 107°
2026-05-08 07:24 55.10566 -130.75025 39012 ft 511 kts 107°
2026-05-08 07:25 55.08903 -130.62958 39019 ft 511 kts 107°
2026-05-08 07:26 55.06387 -130.44917 39017 ft 512 kts 107°
2026-05-08 07:26 55.04690 -130.32836 39019 ft 512 kts 107°
2026-05-08 07:27 55.02981 -130.20769 39017 ft 513 kts 108°
2026-05-08 07:27 55.01255 -130.08685 39021 ft 514 kts 108°
2026-05-08 07:28 54.99513 -129.96591 39019 ft 514 kts 108°
2026-05-08 07:28 54.97700 -129.84542 39023 ft 515 kts 109°
2026-05-08 07:29 54.95845 -129.72504 39020 ft 515 kts 109°
2026-05-08 07:29 54.93987 -129.60467 39019 ft 515 kts 109°
2026-05-08 07:30 54.92123 -129.48431 39023 ft 516 kts 109°
2026-05-08 07:30 54.90259 -129.36446 39028 ft 517 kts 109°
2026-05-08 07:31 54.88368 -129.24399 39024 ft 517 kts 109°
2026-05-08 07:31 54.86463 -129.12365 39036 ft 518 kts 109°
2026-05-08 07:32 54.84541 -129.00300 39030 ft 519 kts 109°
2026-05-08 07:32 54.82606 -128.88241 39030 ft 519 kts 109°
2026-05-08 07:33 54.80657 -128.76174 39029 ft 520 kts 109°
2026-05-08 07:33 54.78695 -128.64117 39024 ft 520 kts 109°
2026-05-08 07:34 54.76720 -128.52054 39026 ft 521 kts 109°
2026-05-08 07:34 54.74733 -128.40006 39026 ft 521 kts 109°
2026-05-08 07:35 54.72729 -128.27946 39022 ft 522 kts 109°
2026-05-08 07:35 54.70724 -128.15964 39019 ft 522 kts 109°
2026-05-08 07:36 54.68693 -128.03904 39019 ft 522 kts 109°
2026-05-08 07:36 54.66648 -127.91845 39013 ft 523 kts 109°
2026-05-08 07:37 54.64590 -127.79790 39011 ft 523 kts 109°
2026-05-08 07:37 54.62517 -127.67751 39013 ft 523 kts 110°
2026-05-08 07:38 54.60443 -127.55771 39009 ft 524 kts 110°
2026-05-08 07:38 54.58342 -127.43721 39005 ft 524 kts 110°
2026-05-08 07:39 54.56229 -127.31671 39004 ft 525 kts 110°
2026-05-08 07:39 54.54105 -127.19639 39000 ft 525 kts 110°
2026-05-08 07:40 54.51966 -127.07616 39007 ft 525 kts 110°
2026-05-08 07:40 54.49824 -126.95666 39009 ft 525 kts 110°
2026-05-08 07:41 54.47658 -126.83635 39009 ft 526 kts 110°
2026-05-08 07:41 54.45483 -126.71636 39009 ft 526 kts 110°
2026-05-08 07:42 54.43293 -126.59631 39003 ft 526 kts 110°
2026-05-08 07:42 54.41088 -126.47631 39003 ft 526 kts 110°
2026-05-08 07:43 54.38872 -126.35646 39003 ft 527 kts 110°
2026-05-08 07:43 54.36657 -126.23745 39004 ft 527 kts 110°
2026-05-08 07:44 54.34414 -126.11770 39006 ft 527 kts 110°
2026-05-08 07:44 54.32160 -125.99808 39005 ft 528 kts 110°
2026-05-08 07:45 54.29891 -125.87848 39002 ft 528 kts 110°
2026-05-08 07:45 54.27609 -125.75893 39003 ft 528 kts 110°
2026-05-08 07:46 54.25316 -125.63954 38996 ft 529 kts 110°
2026-05-08 07:46 54.23007 -125.52008 38993 ft 529 kts 110°
2026-05-08 07:47 54.20687 -125.40084 38993 ft 529 kts 110°
2026-05-08 07:47 54.18356 -125.28172 38994 ft 529 kts 110°
2026-05-08 07:48 54.16004 -125.16226 38995 ft 530 kts 111°
2026-05-08 07:48 54.13661 -125.04399 38998 ft 530 kts 111°
2026-05-08 07:49 54.11282 -124.92466 38998 ft 530 kts 111°
2026-05-08 07:49 54.08897 -124.80573 39001 ft 530 kts 111°
2026-05-08 07:50 54.06494 -124.68662 38998 ft 531 kts 111°
2026-05-08 07:50 54.04087 -124.56806 38992 ft 531 kts 111°
2026-05-08 07:51 54.01677 -124.45003 38993 ft 531 kts 111°
2026-05-08 07:51 53.99244 -124.33154 38988 ft 531 kts 111°
2026-05-08 07:52 53.96797 -124.21312 38986 ft 531 kts 111°
2026-05-08 07:52 53.94337 -124.09479 38987 ft 531 kts 111°
2026-05-08 07:53 53.91868 -123.97668 38988 ft 531 kts 111°
2026-05-08 07:53 53.89379 -123.85836 38987 ft 531 kts 111°
2026-05-08 07:54 53.86885 -123.74046 38987 ft 532 kts 111°
2026-05-08 07:54 53.84391 -123.62326 38986 ft 532 kts 111°
2026-05-08 07:55 53.81869 -123.50542 38986 ft 532 kts 112°
2026-05-08 07:55 53.79337 -123.38777 38987 ft 532 kts 112°
2026-05-08 07:56 53.76791 -123.27022 38992 ft 532 kts 112°
2026-05-08 07:56 53.74235 -123.15282 38982 ft 532 kts 112°
2026-05-08 07:57 53.71662 -123.03536 38976 ft 533 kts 112°
2026-05-08 07:57 53.69092 -122.91865 38968 ft 533 kts 112°
2026-05-08 07:58 53.66496 -122.80140 38965 ft 534 kts 112°
2026-05-08 07:58 53.63887 -122.68428 38967 ft 534 kts 112°
2026-05-08 07:59 53.61263 -122.56713 38968 ft 534 kts 112°
2026-05-08 07:59 53.59070 -122.46972 38965 ft 535 kts 112°
2026-05-08 08:00 53.55989 -122.33363 38964 ft 536 kts 112°
2026-05-08 08:00 53.53759 -122.23565 38961 ft 536 kts 112°
2026-05-08 08:01 53.51095 -122.11924 38964 ft 536 kts 112°
2026-05-08 08:01 53.48402 -122.00222 38959 ft 537 kts 112°
2026-05-08 08:02 53.45700 -121.88537 38966 ft 537 kts 112°
2026-05-08 08:02 53.42983 -121.76855 38963 ft 537 kts 112°
2026-05-08 08:03 53.40251 -121.65175 38978 ft 537 kts 112°
2026-05-08 08:03 53.37510 -121.53515 38980 ft 537 kts 112°
2026-05-08 08:04 53.34779 -121.41970 38988 ft 537 kts 112°
2026-05-08 08:04 53.32018 -121.30355 38992 ft 537 kts 112°
2026-05-08 08:05 53.29244 -121.18748 38989 ft 537 kts 112°
2026-05-08 08:05 53.26461 -121.07169 38988 ft 537 kts 112°
2026-05-08 08:06 53.23672 -120.95620 38984 ft 536 kts 112°
2026-05-08 08:06 53.20866 -120.84063 38982 ft 536 kts 113°
2026-05-08 08:07 53.18052 -120.72535 38982 ft 538 kts 113°
2026-05-08 08:07 53.15220 -120.60995 39003 ft 538 kts 113°
2026-05-08 08:08 53.12393 -120.49533 38983 ft 538 kts 113°
2026-05-08 08:08 53.09534 -120.38003 38992 ft 538 kts 113°
2026-05-08 08:09 53.06663 -120.26486 38994 ft 540 kts 113°
2026-05-08 08:09 53.03777 -120.14969 38992 ft 539 kts 113°
2026-05-08 08:10 53.00907 -120.03545 38991 ft 539 kts 113°
2026-05-08 08:10 52.98715 -119.91647 38992 ft 539 kts 104°
2026-05-08 08:11 52.96865 -119.79557 38993 ft 540 kts 103°
2026-05-08 08:11 52.95056 -119.67491 38998 ft 538 kts 103°
2026-05-08 08:12 52.93227 -119.55465 39002 ft 538 kts 103°
2026-05-08 08:12 52.91378 -119.43501 38997 ft 539 kts 103°
2026-05-08 08:13 52.89497 -119.31466 39000 ft 539 kts 103°
2026-05-08 08:13 52.87605 -119.19446 39000 ft 539 kts 104°
2026-05-08 08:14 52.85700 -119.07424 39001 ft 539 kts 104°
2026-05-08 08:14 52.83798 -118.95497 39005 ft 539 kts 104°
2026-05-08 08:15 52.81867 -118.83483 39003 ft 540 kts 104°
2026-05-08 08:15 52.79928 -118.71487 39003 ft 541 kts 104°
2026-05-08 08:16 52.77967 -118.59455 38994 ft 541 kts 104°
2026-05-08 08:16 52.75996 -118.47451 38999 ft 542 kts 104°
2026-05-08 08:17 52.74012 -118.35455 39001 ft 542 kts 104°
2026-05-08 08:17 52.72024 -118.23511 39007 ft 542 kts 104°
2026-05-08 08:18 52.70017 -118.11534 39009 ft 542 kts 104°
2026-05-08 08:18 52.67992 -117.99543 39010 ft 541 kts 104°
2026-05-08 08:19 52.65961 -117.87581 39015 ft 541 kts 104°
2026-05-08 08:19 52.63932 -117.75721 39011 ft 541 kts 104°
2026-05-08 08:20 52.61876 -117.63790 39013 ft 542 kts 104°
2026-05-08 08:20 52.59805 -117.51853 39021 ft 542 kts 104°
2026-05-08 08:21 52.57723 -117.39930 39022 ft 542 kts 104°
2026-05-08 08:21 52.55631 -117.28023 39015 ft 543 kts 104°
2026-05-08 08:22 52.53520 -117.16083 39017 ft 543 kts 104°
2026-05-08 08:22 52.51416 -117.04259 39017 ft 543 kts 104°
2026-05-08 08:23 52.49280 -116.92355 39011 ft 543 kts 104°
2026-05-08 08:23 52.47134 -116.80468 39006 ft 543 kts 104°
2026-05-08 08:24 52.44970 -116.68552 39007 ft 544 kts 104°
2026-05-08 08:24 52.42801 -116.56665 39001 ft 545 kts 104°
2026-05-08 08:25 52.40625 -116.44841 39010 ft 546 kts 104°
2026-05-08 08:25 52.38417 -116.32934 39007 ft 546 kts 104°
2026-05-08 08:26 52.36200 -116.21040 39015 ft 547 kts 104°
2026-05-08 08:26 52.33968 -116.09147 39016 ft 547 kts 104°
2026-05-08 08:27 52.31726 -115.97273 39009 ft 546 kts 104°
2026-05-08 08:27 52.29473 -115.85413 39002 ft 547 kts 104°
2026-05-08 08:28 52.27205 -115.73553 38994 ft 547 kts 104°
2026-05-08 08:28 52.24929 -115.61708 38984 ft 547 kts 104°
2026-05-08 08:29 52.22650 -115.49935 38971 ft 547 kts 104°
2026-05-08 08:29 52.20343 -115.38094 38957 ft 547 kts 104°
2026-05-08 08:30 52.18024 -115.26258 38952 ft 547 kts 104°
2026-05-08 08:30 52.14545 -115.08638 38932 ft 547 kts 104°
2026-05-08 08:31 52.12183 -114.96765 38925 ft 548 kts 104°
2026-05-08 08:31 52.09836 -114.85038 38917 ft 548 kts 105°
2026-05-08 08:32 52.07466 -114.73267 38925 ft 548 kts 105°
2026-05-08 08:32 52.05080 -114.61487 38916 ft 548 kts 105°
2026-05-08 08:33 52.02696 -114.49792 38932 ft 548 kts 105°
2026-05-08 08:33 52.00287 -114.38044 38949 ft 548 kts 105°
2026-05-08 08:34 51.97864 -114.26292 38947 ft 548 kts 105°
2026-05-08 08:34 51.95434 -114.14579 38950 ft 548 kts 105°
2026-05-08 08:35 51.92986 -114.02848 38952 ft 548 kts 105°
2026-05-08 08:35 51.90544 -113.91212 38956 ft 549 kts 105°
2026-05-08 08:36 51.88078 -113.79528 38955 ft 548 kts 105°
2026-05-08 08:36 51.85601 -113.67865 38949 ft 548 kts 105°
2026-05-08 08:37 51.83113 -113.56214 38947 ft 548 kts 105°
2026-05-08 08:37 51.80613 -113.44573 38950 ft 548 kts 105°
2026-05-08 08:38 51.78099 -113.32935 38945 ft 548 kts 105°
2026-05-08 08:38 51.75593 -113.21395 38941 ft 547 kts 105°
2026-05-08 08:39 51.73060 -113.09801 38936 ft 547 kts 105°
2026-05-08 08:39 51.70517 -112.98226 38934 ft 547 kts 105°
2026-05-08 08:40 51.67963 -112.86666 38930 ft 547 kts 105°
2026-05-08 08:40 51.65400 -112.75127 38916 ft 547 kts 105°
2026-05-08 08:41 51.62827 -112.63604 38910 ft 547 kts 105°
2026-05-08 08:41 51.60257 -112.52162 38917 ft 547 kts 105°
2026-05-08 08:42 51.57665 -112.40682 38928 ft 546 kts 105°
2026-05-08 08:42 51.55056 -112.29194 38935 ft 547 kts 105°
2026-05-08 08:43 51.52438 -112.17727 38945 ft 547 kts 105°
2026-05-08 08:43 51.49808 -112.06266 38948 ft 547 kts 105°
2026-05-08 08:44 51.47168 -111.94823 38959 ft 547 kts 105°
2026-05-08 08:44 51.44529 -111.83445 38967 ft 547 kts 105°
2026-05-08 08:45 51.41865 -111.72022 38975 ft 548 kts 105°
2026-05-08 08:45 51.39186 -111.60594 38976 ft 548 kts 105°
2026-05-08 08:46 51.36491 -111.49166 38971 ft 548 kts 105°
2026-05-08 08:46 51.33787 -111.37755 38957 ft 549 kts 106°
2026-05-08 08:47 51.31068 -111.26348 38950 ft 549 kts 106°
2026-05-08 08:47 51.28337 -111.14944 38939 ft 549 kts 106°
2026-05-08 08:48 51.25594 -111.03550 38932 ft 550 kts 106°
2026-05-08 08:48 51.23305 -110.94088 38928 ft 550 kts 106°
2026-05-08 08:49 51.20090 -110.80866 38919 ft 550 kts 106°
2026-05-08 08:49 51.17314 -110.69514 38917 ft 550 kts 106°
2026-05-08 08:50 51.14977 -110.60003 38921 ft 550 kts 106°
2026-05-08 08:50 51.12196 -110.48737 38914 ft 550 kts 107°
2026-05-08 08:51 51.09384 -110.37403 38917 ft 550 kts 107°
2026-05-08 08:51 51.06561 -110.26081 38920 ft 550 kts 107°
2026-05-08 08:52 51.03732 -110.14798 38921 ft 550 kts 107°
2026-05-08 08:52 51.00890 -110.03515 38925 ft 549 kts 107°
2026-05-08 08:53 50.97892 -109.92347 38918 ft 552 kts 111°
2026-05-08 08:53 50.94371 -109.81495 38927 ft 554 kts 114°
2026-05-08 08:54 50.90796 -109.70690 38925 ft 553 kts 113°
2026-05-08 08:54 50.87292 -109.59846 38928 ft 552 kts 112°
2026-05-08 08:55 50.83821 -109.48990 38931 ft 552 kts 112°
2026-05-08 08:55 50.80371 -109.38216 38932 ft 552 kts 112°
2026-05-08 08:56 50.76890 -109.27404 38934 ft 552 kts 112°
2026-05-08 08:56 50.73395 -109.16606 38935 ft 551 kts 113°
2026-05-08 08:57 50.69899 -109.05852 38935 ft 551 kts 113°
2026-05-08 08:57 50.66391 -108.95112 38933 ft 550 kts 113°
2026-05-08 08:58 50.62900 -108.84469 38940 ft 550 kts 113°
2026-05-08 08:58 50.59377 -108.73773 38943 ft 549 kts 113°
2026-05-08 08:59 50.55851 -108.63113 38944 ft 549 kts 113°
2026-05-08 08:59 50.52310 -108.52455 38944 ft 548 kts 114°
2026-05-08 09:00 50.48775 -108.41857 38949 ft 548 kts 114°
2026-05-08 09:00 50.45249 -108.31331 38948 ft 547 kts 114°
2026-05-08 09:01 50.41696 -108.20769 38952 ft 547 kts 114°
2026-05-08 09:01 50.38137 -108.10232 38935 ft 547 kts 114°
2026-05-08 09:02 50.34568 -107.99712 38925 ft 547 kts 114°
2026-05-08 09:02 50.30990 -107.89206 38914 ft 547 kts 114°
2026-05-08 09:03 50.27408 -107.78733 38909 ft 547 kts 114°
2026-05-08 09:03 50.23807 -107.68250 38908 ft 547 kts 115°
2026-05-08 09:04 50.20200 -107.57790 38914 ft 547 kts 115°
2026-05-08 09:04 50.16580 -107.47337 38925 ft 547 kts 115°